GFSWCAN_prec_radar_090.txt.gz
Reflectivity
18 17 18 23 23 21 22 26 28 28 29 23 22 19 17 23 26 30 34 25 26 32 22 -17 -20 -20 -20 2 -8 9 15 3 11 11 -14 -20 -19 -15 -20 -20 -20 -20 24 23 22 24 10 -7 11 35 -1 -6 -20 -20
23 18 13 9 8 12 13 11 -7 -0 10 -19 1 -16 20 26 27 29 32 27 25 30 29 1 -20 -20 -20 -20 -9 9 3 -10 17 -11 -20 -20 -20 -20 -13 -17 -20 -20 -2 11 9 26 11 3 -17 17 18 -13 17 -20
9 9 6 10 11 6 4 9 8 11 8 10 7 1 -20 16 18 26 31 25 25 35 34 29 -15 -20 -20 -20 -17 -20 -20 -10 -7 14 31 -8 -20 -20 -20 -20 -20 -20 -20 -20 -15 -14 12 -18 -3 16 -18 -20 6 14
13 16 14 13 17 19 17 21 25 22 12 8 14 -15 -15 9 17 20 30 33 21 31 21 15 -6 -18 -15 -20 -20 -20 -20 2 -1 14 11 29 3 -20 -20 -20 -20 -20 -20 -20 -20 -19 3 4 -20 -20 -20 -20 -16 8
19 17 17 7 20 29 26 12 22 25 23 16 18 28 9 -12 -9 19 6 25 15 18 17 -2 -20 -20 -20 -20 -20 -20 -18 16 18 14 25 23 23 -15 -20 -20 -20 -20 -20 -20 -20 6 -6 -20 -20 -20 -20 -20 1 -15
-3 -19 2 15 19 12 9 -9 -19 -12 16 17 18 16 17 31 19 21 34 26 -0 -19 31 -12 -20 -20 -20 -20 -20 -20 -20 3 26 18 28 16 -20 -20 10 -20 -20 -20 -20 -20 -20 -20 -20 -20 -20 -20 -20 -20 -20 -20
6 11 17 9 -1 12 11 13 13 16 0 15 17 22 17 31 33 35 18 10 15 10 23 -3 -20 -20 -20 -20 -20 -20 -13 -20 19 32 1 -20 -15 -18 -20 -20 -20 -20 -20 -20 -20 -18 -20 -20 -20 -20 -19 16 -12 -20
12 0 -10 5 11 4 -19 -15 -6 8 14 -8 8 27 23 34 32 25 -4 -5 -15 31 24 0 -20 13 -9 3 6 20 -0 10 9 32 25 2 -20 -18 5 -20 -20 -20 -20 -20 -20 -20 -20 -20 -20 -20 -20 -16 15 16
-0 -11 1 -11 -5 7 13 15 20 30 21 21 17 30 36 38 37 26 6 15 -1 4 -11 -20 -20 2 22 10 19 28 14 17 18 22 -10 9 -2 3 -20 -20 -20 -20 -20 -20 -20 -18 -1 -20 -20 -20 -20 -20 -20 6
5 1 -19 12 -14 4 18 32 15 29 33 30 39 39 31 34 17 20 34 39 36 19 -20 -20 -18 12 33 3 12 28 5 15 16 13 28 26 -19 -20 -20 -20 -20 -20 -20 -20 -20 -5 -20 -20 -20 -20 -20 -20 -20 -18
-10 -18 5 6 20 18 14 35 37 36 34 38 37 30 27 17 9 19 23 -5 -5 -18 -20 -17 -6 3 12 16 9 -3 30 12 -1 -5 -18 -20 -20 -20 -20 -20 -20 -20 -20 -20 5 -13 -20 -20 -20 -20 -20 -20 -20 -20
5 -9 18 26 18 6 -20 -3 -5 -3 -2 13 18 18 27 28 1 -17 -20 -9 -20 -20 -20 -20 -14 -13 28 34 33 25 18 -3 -20 -20 -11 -20 -20 -20 -20 -20 -20 -20 -20 -20 -20 -20 -20 -20 -20 -20 -20 -20 -20 -20
15 -18 27 37 15 19 18 24 24 3 3 -18 -19 11 2 1 -9 -6 -20 -19 -15 -20 -19 -4 12 31 31 27 16 13 -14 -20 -20 -3 -18 -20 -20 -20 -20 -8 -4 -20 -20 -20 -20 -20 -20 -20 -20 -20 -20 -20 -20 -20
14 -10 5 -2 -15 -4 -4 -13 -3 -20 -20 -20 -20 -20 3 -20 -17 -20 -19 -13 -16 -18 -20 -20 -20 -20 -20 -20 -14 -20 -20 -20 -17 -20 -20 -20 -20 -20 -18 -5 -20 -20 -20 -20 -20 -20 -20 -20 -20 -20 -20 -20 -20 -5
8 -20 -5 18 23 -7 -6 -16 -20 -14 7 2 -20 -20 -20 -20 -19 -15 -15 -14 -15 -18 -20 -20 -20 -20 -20 -20 -17 -20 -10 -20 -20 -20 -20 -20 -20 -7 -7 -16 -18 -20 -14 -4 -4 -19 -19 -19 -20 -17 -5 10 22 29
-20 -20 -20 -8 -18 -18 -20 -20 -20 -20 -20 -20 -20 -9 -16 2 -12 -16 2 -17 -16 -19 -20 -20 -19 -20 -20 -20 -20 -19 -20 -20 -20 -20 -20 -18 -16 -17 -14 -13 -9 21 22 16 15 18 12 8 14 25 34 32 22 18
-20 -20 -20 -20 -20 -20 -20 -20 -20 -20 -20 -20 -20 -20 -18 -17 -19 -20 -16 -10 7 2 -20 -15 -20 -20 -20 -20 -20 -20 -20 -8 -20 -20 -20 -17 -6 -15 -13 -1 25 23 5 18 26 26 25 29 29 22 7 16 15 14
-20 -20 -20 -20 -20 -20 -20 -20 -20 -20 -16 -20 -20 -20 -20 -20 -19 -20 -20 -17 -4 -6 -17 -20 -20 -20 -16 -19 -1 -4 -20 -20 -20 -15 -15 -8 5 4 15 22 11 13 14 21 25 22 17 6 8 12 2 -1 -8 3
-20 -20 -20 -20 -20 -20 -20 -20 -20 -20 -20 -20 -20 -20 -20 -20 -20 -17 -17 -17 -17 -18 -7 11 10 -11 2 8 7 4 1 -13 -20 4 17 15 15 15 20 19 18 20 19 18 17 16 11 1 -11 -12 -8 -1 -18 -10
-20 -20 -20 -20 -20 -20 -20 -20 -20 -20 -20 -20 -20 -20 -20 -2 -11 -15 -18 -17 -18 -14 -1 9 13 13 14 11 2 -2 -14 -20 -20 -16 16 20 14 16 16 17 19 16 11 15 14 8 3 0 -0 -13 -16 -19 -20 -20
-20 -20 -20 -20 -20 -20 -20 -20 -20 -20 -20 -20 -20 -20 -20 -20 -12 -2 3 7 5 10 15 18 14 13 15 10 9 3 4 -18 -19 -12 17 15 17 17 19 17 11 9 5 5 -2 8 6 -5 -1 -20 -20 -20 -20 -20
-20 -20 -20 -20 -20 -20 -20 -20 -15 -20 -20 -20 -20 -20 -20 -19 -11 2 7 8 15 16 13 11 11 9 5 4 7 4 12 8 1 -8 3 6 9 7 8 9 1 7 6 9 7 -10 -18 -20 -20 -20 -20 -20 -20 -20
-20 -20 -20 -20 -20 -20 7 22 -20 -13 -18 -14 -12 -20 -20 -20 -20 -20 6 9 10 10 11 8 9 4 6 7 7 -0 11 14 8 11 13 12 11 13 8 12 14 6 -3 5 -7 -20 -20 -20 -20 -20 -20 -20 -20 -20
-18 -10 -20 -20 -20 -20 -20 -20 -15 -18 -19 -20 -20 -20 -20 -12 -20 -20 -20 -18 7 8 -10 -16 -1 -11 -3 -7 6 3 3 15 10 6 12 12 4 8 6 4 7 6 1 -3 -11 -20 -20 -20 -20 -20 -20 -20 -20 -20
-20 -20 -20 -20 -20 -20 -20 -20 -20 -20 -20 -20 -20 -20 -20 -20 -20 -20 -20 -20 -20 -6 1 -1 -18 -20 -20 -12 -16 -8 -12 3 8 -3 7 13 8 2 3 -4 -17 -20 -20 -20 -20 -20 -20 -20 -20 -20 -20 -20 -20 -20
-20 -20 -20 -20 -20 -20 -20 -20 -20 -20 -20 -20 -20 -20 -20 -20 -20 -20 -20 -20 -20 -19 -7 -3 -5 -13 -19 -20 -20 -17 -12 4 11 11 7 8 10 6 -7 -14 -20 -20 -20 -20 -20 -20 -20 -20 -20 -20 -20 -20 -20 -20
-20 -20 -20 -20 -20 -20 -20 -20 -20 -20 -20 -20 -20 -20 -20 -20 -20 -12 -11 -20 -20 -20 -20 -20 -19 -6 -0 1 1 2 1 1 2 1 2 -0 -3 -9 -20 -20 -20 -20 -20 -20 -20 -20 -20 -20 -20 -20 -20 -20 -20 -20
-20 -20 -20 -20 -20 -20 -20 -20 -20 -20 -20 -20 -20 -20 -20 -20 -20 -20 -20 -20 -20 -20 -20 -19 -18 -20 -19 -17 -3 -0 1 2 0 -6 -10 -13 -19 -20 -20 -20 -20 -20 -20 -20 -20 -20 -20 -20 -20 -20 -20 -20 -20 -20
-20 -20 -20 -20 -20 -20 -20 -20 -20 -20 -20 -20 -20 -20 -20 -20 -20 -20 -20 -20 -20 -20 -20 -20 -20 -19 -19 -18 -19 -18 -18 -19 -20 -20 -20 -20 -20 -20 -20 -20 -20 -20 -20 -20 -20 -20 -20 -20 -20 -20 -20 -20 -20 -20
-20 -20 -20 -20 -20 -20 -20 -20 -20 -20 -20 -20 -16 -20 -20 -20 -12 -16 -20 -19 -20 -20 -19 -18 -18 -18 -18 -19 -19 -20 -20 -20 -20 -20 -20 -20 -20 -20 -20 -20 -20 -20 -20 -20 -20 -20 -20 -20 -20 -20 -20 -20 -20 -20
-20 -20 -20 -20 -20 -20 -20 -20 -20 -20 -20 -20 -20 -20 -20 -20 -20 -20 -20 -19 -19 -20 -20 -20 -20 -20 -20 -20 -20 -20 -20 -20 -20 -20 -20 -20 -20 -20 -20 -20 -20 -20 -20 -20 -20 -20 -20 -20 -20 -20 -20 -20 -20 -20
-20 -20 -20 -20 -20 -20 -20 -20 -20 -20 -20 -20 -20 -20 -20 -20 -20 -20 -20 -20 -20 -20 -20 -20 -20 -20 -20 -20 -20 -20 -20 -20 -20 -20 -20 -20 -20 -20 -20 -20 -20 -20 -20 -20 -20 -20 -20 -20 -20 -20 -20 -20 -20 -20
-20 -20 -20 -20 -20 -20 -20 -20 -20 -20 -20 -20 -20 -20 -20 -20 -20 -20 -20 -20 -20 -20 -20 -20 -20 -20 -20 -20 -20 -20 -20 -20 -20 -20 -20 -20 -20 -20 -20 -20 -20 -20 -20 -20 -20 -20 -20 -20 -20 -20 -20 -20 -20 -20

GFSWCAN_prec_radar_093.txt.gz
Reflectivity
16 17 16 15 14 16 14 8 10 14 10 17 21 20 24 23 17 23 27 19 -2 28 22 -10 -20 -5 6 11 6 10 17 4 19 19 8 -20 -8 -20 -20 -20 -20 10 6 8 5 18 -8 18 -1 9 5 34 13 -4
13 14 15 16 17 18 12 11 11 7 17 22 26 28 22 23 27 27 34 31 25 26 32 9 -18 -18 -6 0 4 7 8 -8 22 -17 -20 -20 -20 -20 -20 -20 -20 -20 -20 -18 29 28 19 23 8 -3 15 29 21 17
12 9 12 12 12 12 16 13 15 12 9 5 -11 12 26 24 26 30 35 30 27 34 31 16 -7 -16 -5 -6 -16 4 -20 -18 -17 19 8 12 -19 -20 -0 -20 -20 -20 -20 -20 1 -1 20 14 4 4 6 -0 21 -5
9 13 22 21 16 18 17 11 10 8 5 7 2 -4 2 18 28 31 33 32 24 32 19 10 -20 -20 -8 -4 -19 -20 -20 2 14 21 29 30 -6 18 -5 -11 -20 -20 -20 -20 -20 -20 -7 10 -18 -20 -20 -9 10 1
27 24 21 19 21 22 17 14 13 16 14 9 12 11 -12 5 16 31 36 28 23 11 20 8 -20 -20 -20 -20 -20 -20 -20 6 17 29 32 -7 -20 5 -15 -19 -2 -20 -20 -20 -20 -20 -20 -10 -20 -20 -20 -20 -20 -20
24 22 20 18 18 18 21 21 18 11 12 14 19 16 -20 10 3 31 38 29 31 30 28 -8 -20 -20 -20 -20 -20 -20 -20 -19 17 35 29 -14 -20 14 -20 -20 -20 -20 -20 -20 -20 -20 -20 -20 -20 -20 -20 -20 -20 -20
23 23 12 10 -14 -14 2 -1 -15 -10 19 -8 8 15 30 27 22 28 19 12 21 29 29 1 -20 -20 -20 -20 -20 -20 -20 19 26 31 28 -1 -20 13 -13 -10 -20 -20 -20 -20 -20 -20 -20 -20 -20 -20 -20 -20 -20 -12
6 17 -20 7 2 -19 -13 4 10 8 9 -14 15 23 18 37 23 10 -12 12 -16 -11 3 -9 -20 -20 -20 -20 -20 -20 -20 5 20 24 14 22 19 19 11 -20 -20 -20 -20 -20 -20 -20 -20 -20 -20 -20 -20 -20 -20 -20
-19 -20 -7 3 -14 -20 -20 -20 9 5 13 10 -9 30 31 37 38 28 22 24 1 -2 -12 -16 -20 -20 -12 19 3 12 8 3 19 1 -19 -13 15 9 -20 -20 -20 -20 -20 -20 -20 -20 -20 -20 -20 -20 -20 -20 -20 -4
-20 -11 18 -4 18 -1 12 14 -8 24 17 5 28 40 31 32 6 22 35 34 37 24 1 -20 -20 -20 -13 -1 -19 26 -9 -15 -9 -20 -9 9 -18 -20 -20 -20 -20 -20 -20 -20 -20 -20 -20 -20 -20 -16 -20 -20 10 17
16 30 17 14 24 18 20 27 38 32 30 28 40 30 28 23 28 32 19 12 14 -11 -15 -20 -20 -13 -15 -19 7 -1 26 -5 7 -18 -11 -9 -20 -20 -20 -20 -20 -20 -20 -20 -20 -20 -20 -20 -19 -16 -20 -5 -15 -20
26 17 -20 15 14 15 31 27 32 31 28 28 29 23 27 33 15 15 -20 -9 -20 -20 -13 -16 -12 -20 -20 -20 0 -3 -20 20 14 -20 4 -18 -20 -20 -20 -20 -20 -20 -20 -20 -20 -20 -20 -20 -17 -20 -16 -19 -3 -20
33 14 18 6 6 4 20 35 27 23 18 10 10 10 13 -2 -7 -20 -20 -20 -20 -20 -18 -7 -3 -20 -20 -20 15 25 -18 6 6 8 -19 -20 -20 -20 -20 -20 -20 -5 -17 -20 -20 -20 -20 -17 4 -11 -8 -20 -4 -20
23 24 5 10 14 -7 -19 7 12 13 8 1 -20 -20 -20 -20 -20 -20 -20 -20 -18 -19 -13 -17 -16 7 7 -15 0 9 12 1 7 8 -6 -8 -15 -8 -20 -20 -16 -14 4 -20 -20 -20 -20 -20 -20 -20 -9 -20 -20 -20
-16 6 8 -1 -16 -20 -20 -20 -20 -17 -20 -20 -20 -20 -20 -20 -20 -20 -19 -20 -20 -19 3 1 -17 -12 4 17 -17 -20 -20 -20 -20 -20 -11 5 -5 -20 -20 -18 -17 -16 -4 5 -18 -20 -19 -19 -16 -20 -19 -19 -20 -17
1 25 18 -20 2 -20 -20 -20 -3 3 -9 -20 -20 -20 -20 -20 -20 -20 -17 -18 -14 -15 -4 13 -18 -20 -20 -20 -18 -20 -20 -20 -7 6 -10 -20 -18 -16 -16 -13 -13 -10 2 9 -8 0 -8 11 11 11 12 12 14 11
-20 -20 -16 -8 -19 -8 -7 -19 -20 -20 -20 -20 -20 -20 -19 -20 -20 -20 -19 -19 -14 7 -1 -20 -20 -20 -20 -20 -20 -20 -20 -20 -20 -19 -19 -20 -20 -15 -19 -17 -15 -11 8 13 16 23 20 11 17 17 16 19 20 22
-20 -20 -20 -20 -20 -20 -20 -20 -20 -20 -20 -20 -19 -20 -20 -20 -20 -20 -18 -16 -11 -17 -20 -20 -20 -18 -20 -20 -20 -20 -20 -19 -20 -18 -12 -20 -20 -20 -14 -17 -1 -8 7 16 20 20 15 22 23 27 23 18 19 20
-20 -20 -20 -20 -20 -20 -20 -20 -20 -20 -20 -20 -20 -20 -20 -20 -19 -12 -18 -4 11 10 -7 -1 -0 -18 -19 -14 -17 -20 -20 -20 -9 -17 -20 -20 -19 0 16 8 12 21 20 23 25 24 20 21 23 22 20 19 16 9
-20 -20 -20 -20 -20 -20 -20 -20 -20 -20 -20 -20 -20 -20 -20 -4 -19 -20 -20 -20 -17 -14 -11 -9 -14 -17 -7 -0 4 -12 -20 -20 -20 -20 -8 -13 -6 8 19 19 19 18 13 13 19 18 16 17 18 17 15 11 1 -16
-20 -20 -20 -20 -20 -20 -20 -20 -20 -20 -20 -20 -20 -20 -15 -15 -3 -3 -10 -17 -18 -6 -16 0 9 14 16 14 3 -20 -20 -20 -19 -19 -18 -15 3 11 12 10 11 14 8 9 4 13 12 2 3 6 -6 -11 -2 -0
-20 -20 -20 -20 -20 -20 -20 -20 -20 -20 -20 -20 -20 -20 -20 -20 -3 10 12 8 10 10 10 13 13 10 7 -7 -20 -20 -9 -17 -16 -15 -17 -12 -11 2 12 11 6 8 11 12 8 6 6 0 -10 -13 -16 -16 -16 -17
-20 -20 -20 -20 -20 -20 6 12 -20 -11 -20 -20 -20 -20 -20 -20 -20 -20 8 11 10 10 8 7 5 -5 -20 -9 -20 -1 6 -2 -18 -8 7 3 4 8 -0 11 16 12 6 9 5 -6 -16 -20 -20 -20 -20 -20 -20 -20
-16 -16 -20 -20 -20 -20 -20 -20 -20 -20 -20 -20 -20 -20 -20 -12 -20 -20 -19 -2 2 -4 -4 5 5 -4 -5 -18 -15 -13 1 11 6 -1 7 3 -4 8 10 11 11 10 8 -1 -12 -17 -20 -20 -20 -20 -20 -20 -20 -20
-20 -20 -20 -20 -20 -20 -20 -20 -20 -20 -20 -20 -20 -20 -20 -20 -20 -20 -20 -20 -20 -9 -2 -8 -8 1 -1 -8 1 2 3 -0 -1 -12 5 12 7 8 10 8 -2 -10 -13 -19 -20 -20 -20 -20 -20 -20 -20 -20 -20 -20
-20 -20 -20 -20 -20 -20 -20 -20 -20 -20 -20 -20 -20 -20 -20 -20 -20 -20 -20 -20 -20 -20 -20 -16 -18 -17 -20 -8 -11 -19 -9 -8 -1 -2 -1 -2 4 -1 -7 -11 -13 -20 -20 -20 -20 -20 -20 -20 -20 -20 -20 -20 -20 -20
-20 -20 -20 -20 -20 -20 -20 -20 -20 -20 -20 -20 -20 -20 -20 -20 -20 -15 -14 -20 -20 -20 -20 -20 -17 -12 -5 -1 -0 0 0 2 2 0 -0 -3 -3 -3 -3 -3 -4 -12 -12 -13 -16 -20 -20 -20 -20 -20 -20 -20 -20 -20
-20 -20 -20 -20 -20 -20 -20 -20 -20 -20 -20 -20 -20 -20 -20 -20 -20 -20 -20 -20 -20 -20 -19 -19 -19 -19 -19 -20 -13 -6 -3 1 1 -6 -14 -19 -20 -16 -16 -20 -20 -20 -20 -20 -20 -20 -20 -20 -20 -20 -20 -20 -20 -20
-20 -20 -20 -20 -20 -20 -20 -20 -20 -20 -20 -20 -20 -20 -20 -20 -20 -20 -20 -20 -20 -20 -20 -20 -19 -19 -18 -19 -20 -20 -20 -20 -20 -20 -20 -20 -20 -20 -20 -20 -20 -20 -20 -20 -20 -20 -20 -20 -20 -20 -20 -20 -20 -20
-20 -20 -20 -20 -20 -20 -20 -20 -20 -20 -20 -17 -14 -20 -20 -20 -18 -19 -20 -20 -20 -20 -18 -18 -18 -19 -19 -20 -20 -20 -20 -20 -20 -20 -20 -20 -20 -20 -20 -20 -20 -20 -20 -20 -20 -20 -14 -20 -20 -20 -20 -20 -20 -20
-20 -20 -20 -20 -20 -20 -20 -20 -20 -20 -20 -20 -20 -20 -20 -20 -20 -20 -20 -20 -20 -20 -20 -20 -20 -20 -20 -20 -20 -20 -20 -20 -20 -20 -20 -20 -20 -20 -20 -20 -20 -20 -20 -20 -20 -20 -20 -20 -20 -20 -20 -20 -20 -20
-20 -20 -20 -20 -20 -20 -20 -20 -20 -20 -20 -20 -20 -20 -20 -20 -20 -20 -20 -20 -20 -20 -20 -20 -20 -20 -20 -20 -20 -20 -20 -20 -20 -20 -20 -20 -20 -20 -20 -20 -20 -20 -20 -20 -20 -20 -20 -20 -20 -20 -20 -20 -20 -20
-20 -20 -20 -20 -20 -20 -20 -20 -20 -20 -20 -20 -20 -20 -20 -20 -20 -20 -20 -20 -20 -20 -20 -20 -20 -20 -20 -20 -20 -20 -20 -20 -20 -20 -20 -20 -20 -20 -20 -20 -20 -20 -20 -20 -20 -20 -20 -20 -20 -20 -20 -20 -20 -20

GFSWCAN_prec_radar_099.txt.gz
Reflectivity
4 12 10 9 -3 -1 2 -2 4 7 8 12 14 15 17 17 -20 19 -18 16 17 5 1 -20 -9 19 17 18 19 17 14 -0 26 14 14 16 16 11 8 9 27 19 21 18 8 20 21 -3 -20 13 5 -20 -14 -20
10 -17 -20 -20 -20 8 10 19 18 17 15 -6 6 8 13 14 -20 17 12 6 17 19 8 3 -20 -20 -19 13 20 8 13 5 36 25 13 22 15 17 12 13 5 21 4 23 14 16 -13 -20 19 -18 -20 -20 -7 -20
-13 -18 3 5 8 13 15 14 16 12 8 15 12 8 9 -1 9 19 9 12 23 22 8 9 -3 5 -19 -20 -18 16 -1 12 21 27 26 26 19 18 20 -10 -11 -3 6 -10 -13 -20 -5 7 -17 -19 17 20 -17 3
4 2 -14 2 10 14 20 22 15 12 10 13 13 12 9 -4 13 14 15 20 23 19 15 3 -12 -20 4 -9 -20 -20 -18 -6 22 20 28 22 12 5 12 12 12 -3 -17 -20 -7 5 -6 -17 -8 -9 26 11 -2 -15
-2 -20 4 9 16 17 19 20 27 18 5 14 11 15 16 13 -0 19 14 14 -6 6 16 26 15 1 -19 -20 -20 -19 6 10 17 24 31 12 -2 14 -12 -14 2 -20 -20 11 -18 6 -3 -9 -9 6 -12 -20 -20 9
4 -3 20 27 23 15 21 -8 21 15 14 -15 5 13 19 15 31 35 39 36 28 16 32 17 18 16 -13 -10 -1 -19 4 15 21 36 17 14 -20 18 16 -1 -20 -0 10 -20 -11 -16 -12 -20 -20 -20 -20 -20 -20 -20
-6 -1 -2 7 15 -20 10 -9 8 14 -18 1 -1 5 -18 17 25 32 27 16 12 23 36 18 -3 -13 -19 -9 11 12 18 16 24 31 15 7 -2 21 18 10 -20 -20 -20 -20 -20 -20 -20 -20 -20 -20 -20 -20 -20 -20
1 19 -12 -20 -15 -11 -20 -13 16 7 1 6 6 9 20 25 30 25 10 0 12 30 32 22 2 4 -1 9 18 -7 3 1 27 19 16 8 -0 19 13 -20 -20 -20 -20 -20 -20 -20 -20 -20 -20 -20 -20 -20 -20 -20
-16 -16 -19 -20 -19 -20 -20 -17 11 13 18 28 28 26 34 37 35 19 11 18 14 19 23 11 13 18 -11 19 20 6 12 17 10 20 6 6 10 13 -15 -20 -20 -20 -20 -20 -20 -20 -20 -20 -20 -20 -20 -20 -20 -20
-20 -19 2 -20 12 7 -20 1 -9 9 11 32 37 39 27 31 4 26 40 32 32 30 31 1 3 22 -9 6 20 20 5 15 10 7 -19 14 12 -20 -20 -20 -20 -20 -20 -20 -20 -20 -20 -16 -16 -20 -20 -20 -20 -20
-18 -9 12 18 18 13 -2 -10 9 16 16 38 37 35 19 4 19 22 22 20 21 16 0 -20 -4 21 -20 -4 4 -2 19 22 13 -5 9 10 -14 -7 -11 -20 -20 -20 -20 -20 -20 -20 -20 -20 -20 -20 -20 -20 -20 -20
-3 12 -9 8 -18 -20 -20 8 9 7 30 25 22 26 23 31 31 22 14 9 7 1 -5 -4 -3 14 14 -13 25 14 -4 7 12 21 9 7 4 -20 -20 -20 -20 -20 -20 -20 -20 -20 -20 -20 -20 -20 -20 -20 -20 -20
21 25 15 30 24 29 26 33 25 -6 18 -1 7 24 24 21 14 1 7 7 2 9 -3 -10 15 16 2 -15 18 15 16 11 6 9 8 0 -16 -20 -20 -20 -20 -20 -20 -20 -20 -20 -20 -20 -20 -20 -20 -20 -20 -20
25 31 13 27 29 33 34 29 12 30 30 26 19 5 15 -0 5 16 4 -7 -1 8 -15 -4 12 11 16 3 3 13 18 4 13 -12 3 -0 -5 -5 -5 1 -20 -20 -20 -20 -20 -20 -20 -16 -20 -20 -20 -18 -19 -17
24 28 29 23 13 -1 15 20 10 5 7 0 -13 -17 -10 1 -1 -1 -3 1 -14 -19 -9 13 11 17 12 13 -1 4 14 16 13 -0 3 1 1 -2 -4 -4 -1 -5 -9 -20 -15 -18 -15 -18 -20 -16 -10 -8 -16 4
-9 14 6 -4 11 28 18 15 0 -1 -17 -20 -15 -0 -6 3 5 -0 -1 -2 -18 -20 -6 8 23 10 15 13 16 15 14 8 1 7 2 -9 0 1 -12 -8 -3 -2 -2 -3 -4 -9 -16 -14 -15 -15 -15 -11 -14 -15
-13 0 8 -10 -20 -20 -19 -16 -7 -20 -20 -3 2 -6 6 -2 4 2 -0 -3 -20 -18 12 11 20 9 -2 8 -3 -20 -0 5 1 5 4 3 3 1 -20 -2 3 -3 1 1 -2 -6 -6 -6 -14 -14 -11 1 -2 1
-20 -20 -20 1 13 10 0 -17 -20 -20 -2 6 -1 6 -1 1 6 0 4 1 2 6 -1 -6 -15 -1 -2 2 2 9 9 5 -0 -0 4 4 4 7 7 2 4 0 1 3 2 4 1 -2 -18 1 3 8 10 16
-20 3 18 -3 19 9 -7 5 -1 -7 4 4 7 5 5 7 5 4 6 5 5 -19 -20 -13 -19 -4 5 2 3 7 7 4 4 3 5 4 3 3 3 -1 2 4 3 7 6 5 6 4 5 9 9 8 7 13
-19 -18 -20 -20 -20 -20 -20 -20 -20 -20 3 3 2 -2 1 4 3 4 -5 -5 -12 -10 -16 -4 4 6 3 3 4 6 12 10 9 9 1 5 6 2 4 6 1 2 -0 -0 2 2 1 3 3 6 6 12 14 16
-20 -20 -20 -20 -20 -20 -20 -3 1 0 2 2 4 -0 6 -20 -2 -1 -20 -10 -20 2 4 3 5 5 7 8 7 8 4 0 4 3 4 8 8 4 2 6 5 7 4 5 2 2 2 1 3 12 15 13 12 9
-20 -20 -20 -20 -20 -20 -15 0 0 5 6 7 2 0 4 3 -0 -2 -0 -9 6 8 8 8 6 5 5 1 4 1 4 8 6 6 2 9 10 8 8 6 9 14 12 5 -1 8 14 13 10 12 14 13 11 11
-20 -20 -20 -20 -20 -20 -1 19 13 11 11 9 4 3 3 4 4 -3 -1 8 10 10 9 6 2 2 5 6 3 1 2 7 6 5 5 6 6 5 1 3 7 7 0 4 8 10 8 8 9 5 -13 -14 -13 -18
-20 -20 -20 -20 -20 -3 -16 -0 2 5 10 7 2 5 1 5 -5 -0 -3 3 8 2 0 5 -9 5 2 -2 -1 -2 -0 8 4 3 8 4 1 6 8 7 6 4 5 7 9 7 -4 -20 -20 -20 -20 -20 -20 -20
-20 -20 -20 -20 -20 -20 -20 -20 -5 -2 2 -0 -1 2 2 -0 -0 -1 -1 2 5 3 3 3 3 -2 -2 1 1 0 -1 1 -1 -2 7 5 3 -3 -5 -4 -1 4 6 1 -18 -20 -4 -7 -20 -20 -20 -20 -20 -20
-20 -20 -16 -20 -15 -17 -20 -15 -15 -15 -9 -2 -2 -2 -1 -2 -17 -1 -0 4 5 2 3 3 3 4 -1 -1 -8 -14 -2 4 -0 -5 -12 -10 8 3 1 -15 -18 -9 -9 -15 -20 -20 -20 -20 -20 -20 -20 -20 -20 -20
-20 -17 -20 -20 -20 -20 -20 -20 -20 -18 -20 -2 -8 -19 -20 -17 -1 3 4 3 3 4 5 2 2 2 2 2 -0 -1 -1 -16 -18 -5 -1 -3 -14 -20 -13 -20 -20 -13 -20 -20 -20 -20 -20 -20 -20 -20 -20 -20 -20 -20
-20 -20 -20 -18 -20 -20 -20 -20 -14 -4 -0 -7 -20 -9 -20 -3 2 6 7 5 6 3 4 2 2 0 -2 1 2 2 4 -2 -4 -8 -8 -16 -14 -20 -20 -20 -20 -20 -20 -20 -20 -20 -20 -20 -20 -20 -20 -20 -20 -20
-15 -20 -20 -20 -20 -19 -4 -1 0 -1 -5 -4 -1 -0 2 1 5 6 5 5 5 6 3 2 5 6 4 0 -2 -2 -8 -5 3 -4 -17 -3 -8 -12 -2 -2 -5 -8 -20 -20 -20 -20 -20 -20 -20 -20 -20 -20 -20 -18
-18 -16 -20 -20 -20 -3 2 1 3 4 -3 -5 -11 -1 1 4 6 5 4 3 3 3 2 0 2 2 3 1 -2 -11 -3 -6 -19 -1 -4 -13 -3 0 -0 -0 -0 2 1 -2 -4 -8 -18 -20 -20 -20 -20 -20 -20 -20
-20 -20 -20 -20 -4 5 5 3 3 1 2 1 -1 -10 2 2 3 1 1 5 1 3 1 -1 -5 -3 -15 -20 0 -0 -11 -2 -20 -20 -8 -3 -2 -0 0 0 2 1 0 -1 -1 -1 -3 -3 -20 -20 -20 -20 -20 -20
-20 -20 -20 -20 -1 2 1 7 1 2 4 2 2 -0 -3 3 0 2 0 1 2 0 -19 -4 -20 -6 -4 -2 -2 -2 -4 -2 -2 -3 -3 -1 -1 -1 -1 -0 -1 -2 -4 -20 -20 -20 -20 -20 -20 -20 -20 -20 -20 -20
-20 -20 -20 -20 -3 0 -0 2 -3 2 1 0 1 -1 -2 1 -3 2 2 0 0 -4 -14 -4 -3 -17 -20 -20 -6 -6 -16 -13 -20 -20 -20 -20 -20 -17 -1 -0 -3 -3 -10 -3 -3 -20 -20 -20 -20 -20 -20 -20 -20 -20

GFSWCAN_prec_radar_102.txt.gz
Reflectivity
-20 10 -0 -8 4 -20 -19 -20 3 -20 -14 -20 -12 -2 15 19 -12 19 -5 19 22 9 -9 -20 -20 -8 -13 18 16 26 6 0 11 11 18 -10 4 5 -14 16 34 14 20 17 17 19 10 -20 -20 -10 15 -20 14 -3
15 11 12 8 -19 -20 -20 -14 -1 -11 -20 -2 -2 6 7 14 19 -11 -2 9 21 18 -18 -20 -20 -20 -18 -17 15 -6 24 32 38 35 26 27 18 15 16 19 14 32 -15 22 14 1 -7 -20 -10 -20 -20 -20 -20 -20
-17 -6 -20 -20 -20 -20 -20 -6 -9 11 10 6 14 5 10 -3 -9 16 -4 4 18 20 -4 -20 -20 -20 -20 -20 -20 11 -20 -6 11 32 31 23 13 21 25 18 26 -14 10 8 27 4 36 7 -17 -20 -20 -20 -20 -20
5 -11 -20 -20 -20 -16 -4 7 12 14 17 13 13 9 -20 3 12 11 18 14 22 20 9 -2 -19 -20 -20 -20 -20 -6 -20 -20 -20 10 26 27 11 -2 16 24 30 16 8 7 20 -20 -20 -6 -16 -17 -20 -17 -10 -17
6 3 -12 -20 -20 -17 -8 8 20 27 24 16 15 -9 7 8 16 16 20 19 21 -0 12 25 9 -12 -20 -20 -20 -20 -20 9 8 12 28 24 4 8 -2 -10 -20 -3 -20 2 2 32 -1 2 18 -11 -10 3 15 6
2 -20 -20 -20 2 14 23 18 17 22 31 23 10 15 13 13 9 26 17 19 21 17 21 6 -19 -10 0 -20 -20 -20 -20 -20 20 20 14 -16 -2 18 6 -13 -13 15 7 -20 -14 22 7 -20 -20 -20 -20 -9 -20 -20
8 6 -1 -18 -19 20 1 4 -2 25 17 28 10 8 11 17 21 11 24 7 4 18 34 12 -20 -16 -20 14 16 12 -12 11 20 29 18 4 -20 11 25 7 -20 -20 -3 -20 -20 -20 -20 -20 -20 -20 -20 -20 -20 -14
-6 -13 2 31 13 -15 -11 -20 13 -3 16 30 18 -3 15 20 34 30 12 19 11 24 32 23 4 11 -7 -3 11 -2 16 17 33 25 11 -4 -18 18 16 -11 -20 -20 -20 -20 -20 -20 -19 -14 17 -20 -20 -20 -20 -20
27 16 -16 5 7 9 1 -20 4 22 12 28 20 18 29 34 36 25 2 23 10 22 20 13 -18 5 10 14 15 12 11 9 15 1 -2 -20 -1 15 -16 -8 -15 -20 -20 -20 -20 4 -5 -20 -20 -8 -17 -20 -20 -20
-5 -20 -20 -20 -20 -20 -18 -20 -20 16 36 35 32 37 26 21 9 19 38 37 40 33 25 9 -20 -19 -4 20 22 19 20 14 12 -10 -20 2 -19 -20 -20 -20 -20 -20 -15 -20 -20 -20 -20 -20 -20 8 -11 -20 -20 -20
-17 -20 -20 -20 -20 -20 12 -20 11 21 35 37 33 29 14 20 17 35 22 23 28 21 -15 -9 -20 -9 -3 7 -20 -5 -12 12 10 -11 16 -5 9 2 -19 -20 -20 -20 -20 -20 -20 -20 -20 -20 -20 -20 -20 -20 -20 -20
-20 3 -16 -20 -20 -6 20 -3 13 22 32 15 14 24 21 27 30 19 10 6 4 -20 -3 -20 -20 16 -2 12 13 -17 -20 -8 -2 -19 16 7 -3 -20 -20 -20 -20 -20 -20 -20 -20 -20 -20 -20 -20 -20 -20 -20 -20 -20
-18 23 6 3 -8 -20 2 23 17 9 24 9 5 19 14 13 11 -3 11 9 -7 10 -17 -20 13 -0 -20 -14 -13 3 -2 -1 4 -12 7 -3 -18 -20 -20 -20 -20 -20 -20 -20 -20 -20 -20 -20 -20 -20 -20 -20 -20 -20
17 15 14 22 -16 16 33 31 9 34 35 30 26 12 5 -6 10 13 11 -18 -14 2 -20 -9 1 20 17 -14 -18 -20 -19 -9 -1 -12 0 -3 -5 -20 -20 -20 -20 -20 -20 -20 -20 -20 -20 -19 -15 -20 3 -20 -20 -20
23 17 28 35 37 35 24 23 31 28 12 -3 -15 -15 -20 -10 -2 -0 -5 -11 -11 -20 -18 10 2 8 13 -19 -8 -20 7 -6 7 -6 3 3 -4 -15 -20 -20 -20 -6 -18 -20 -6 -20 -20 -18 -15 -15 -11 -2 -13 -19
14 19 28 30 32 22 25 34 9 10 5 -11 -20 2 9 4 5 -19 2 -20 -20 -20 -19 -4 -16 -3 3 -2 11 2 13 -3 0 7 6 -20 -17 -20 -9 -9 -13 -20 -8 -4 -10 -20 -20 -19 -19 -15 -14 -14 -15 -15
9 24 36 34 33 -2 -10 -19 -20 9 11 -6 -4 -8 5 -2 1 -4 -6 -12 -10 -18 12 5 14 19 15 4 -3 -19 -3 4 -1 3 -12 0 4 4 -0 -20 -4 3 -9 -10 -6 -8 -6 -6 -5 -11 -15 3 -4 -8
-4 -10 -20 -20 -4 4 -17 -20 -20 -20 -0 8 2 -0 -17 -4 5 -2 1 -1 -4 18 5 -12 -17 7 -5 -0 3 11 7 11 5 3 -20 3 3 -4 5 2 3 -4 1 0 2 2 -8 -4 -15 1 -2 -7 -2 3
-17 -17 -10 19 15 8 -20 -20 -20 -9 8 9 8 8 3 5 -4 -6 -2 4 2 -20 -18 -1 -20 -10 2 2 0 1 8 6 5 -3 -1 -16 -14 2 -2 -16 1 -2 -15 6 -4 6 5 -6 1 1 4 2 -1 2
-7 30 20 23 13 -7 -17 -20 -20 -5 7 4 -6 -16 3 7 7 2 -3 -16 -18 -19 -8 -7 2 5 2 1 5 2 10 -2 11 12 12 7 -2 -8 5 -10 -8 -1 -5 -17 -14 -3 0 8 7 3 -4 -5 -6 5
-20 -20 -20 -20 -20 -20 -15 -0 2 -1 10 6 7 -2 3 -20 -4 -3 -20 -18 -19 -3 1 3 3 3 7 4 6 -1 7 4 3 4 1 9 7 -5 1 6 9 11 6 7 3 5 2 0 2 0 -4 -2 -1 -1
-20 -20 -20 -20 -20 -20 -13 -11 -2 6 6 6 2 3 7 0 -4 -1 -4 -20 -2 5 5 8 5 2 8 1 5 2 -7 -6 -1 -10 12 6 14 11 7 6 7 5 5 6 0 -1 0 -5 -20 -17 -17 -8 2 3
-20 -20 -20 -20 -20 -18 -5 23 11 1 12 7 7 2 5 2 3 -3 -2 6 9 9 9 8 -4 -4 9 8 -19 -20 -3 0 6 8 4 8 7 8 9 8 2 1 5 4 2 2 -2 -1 1 1 4 4 -1 3
-20 -20 -20 -20 -10 2 -15 -3 2 8 11 10 6 7 6 7 -14 3 3 9 10 7 1 6 -20 11 7 -2 -5 -5 -5 10 1 -8 12 5 1 3 -3 0 2 4 3 4 7 7 1 1 -1 -17 -19 -20 -20 -17
-20 -20 -20 -20 -20 -13 -2 -5 2 -19 5 -4 -2 4 5 7 1 1 2 5 5 3 2 -0 10 -20 -14 2 1 -1 -19 -7 -6 -20 5 -3 -0 -0 1 1 6 8 7 6 5 3 4 -1 -2 -2 -20 -20 -20 -20
-20 -20 -16 -8 -14 -17 -8 -0 -2 2 -2 0 3 3 3 -2 -12 1 2 5 6 4 5 5 6 5 -2 -4 -5 -14 -6 0 -6 -20 -17 -16 4 3 2 -1 -13 -15 -10 -5 -8 -4 -6 -19 -20 -20 -20 -20 -20 -20
-17 -3 -11 -20 -20 -14 -4 -9 -20 -20 -5 1 -2 -12 -3 -11 -1 6 4 1 6 7 6 5 3 1 2 4 2 -2 -6 -20 -13 -3 -0 -10 -17 -18 -9 -6 -4 2 -12 -5 -20 -20 -20 -20 -20 -20 -20 -20 -20 -20
-20 -20 -9 -6 -20 -20 -20 -20 -7 -6 -1 -11 -20 -7 -17 -2 3 7 9 6 9 9 5 3 3 -3 -2 2 1 0 9 -9 -20 -20 -19 -2 3 -2 -13 -20 -20 -20 -20 -18 -20 -20 -20 -20 -20 -20 -20 -20 -20 -20
-4 -20 -20 -20 -20 -19 -2 -3 0 -5 -20 -2 0 -1 2 4 9 6 9 9 5 -0 -1 0 8 12 6 -3 -6 -17 -18 -13 7 -9 -19 -4 -9 -0 7 6 -8 -20 -20 -20 -20 -20 -20 -20 -20 -20 -20 -20 -20 -20
-15 -20 -20 -20 -20 -5 3 6 6 -0 -20 -19 -20 0 0 4 5 4 4 3 5 2 2 2 1 -8 -8 3 -10 -19 -2 -3 -14 -4 -12 -5 3 3 2 0 -3 5 -2 -20 -20 -20 -20 -20 -20 -20 -20 -20 -20 -20
-20 -20 -20 -20 -4 5 3 -2 4 4 5 3 -18 -17 -3 1 2 -4 -0 8 -0 6 2 -1 -3 -3 -11 -20 -14 -5 -13 -4 -13 -10 -0 1 -3 -5 -16 -20 2 0 -1 -3 -3 -12 -20 -5 -20 -20 -20 -20 -20 -20
-20 -20 -20 -20 -2 2 4 11 2 6 7 4 1 -11 -19 6 -0 -1 -8 2 1 -2 -19 -6 -5 -3 -5 -4 -4 -7 -19 -20 -20 -20 -20 -20 -5 -7 -4 -2 -2 -6 -14 -20 -20 -20 -20 -9 -6 -19 -20 -20 -20 -20
-5 -20 -20 -20 -4 -2 -10 7 -3 2 3 1 -0 -3 -20 -6 -4 3 1 -3 1 -2 -1 -0 -1 -4 -18 -20 -7 -12 -20 -20 -20 -20 -20 -20 -20 -20 -16 -20 -4 -7 -14 -4 -8 -20 -20 -20 -20 -20 -20 -20 -20 -20

GFSWCAN_prec_radar_105.txt.gz
Reflectivity
4 12 13 -8 -20 2 -20 -20 -20 -20 -20 -7 5 -2 -20 -0 21 18 -20 -20 12 -8 -20 -20 -20 -20 -20 -14 -20 15 -17 28 16 -12 -17 -20 -19 17 11 -2 7 25 -2 -0 7 14 -17 3 -20 -12 17 -20 -20 -20
8 7 8 2 8 9 7 16 -6 -20 -20 -20 -20 -15 -20 -20 -18 21 -20 -20 13 17 1 -20 -20 -20 -20 -20 -20 -1 21 25 16 25 32 16 -10 -20 8 3 41 11 -8 -3 -20 -20 -20 -16 27 0 -20 -20 -20 -20
-20 11 3 5 -20 -20 -20 -20 -20 1 -20 10 -20 -0 3 2 -12 18 -20 -20 20 24 -20 -20 -20 -20 -20 -20 -20 -20 -15 3 -18 3 -9 -3 21 25 10 19 31 39 31 37 17 16 -20 3 10 18 -20 -20 -20 -20
-1 3 -17 -9 -2 -9 -20 -18 -9 -1 -10 -20 5 9 9 5 9 14 -4 -20 -20 18 1 -20 -20 -20 -20 -20 -20 -20 -20 -20 -20 -20 -6 -9 1 3 -20 -20 13 23 29 36 31 29 28 33 21 -11 -20 -20 -20 -20
-13 -20 -13 -14 -20 8 -3 2 1 -10 -20 6 9 16 12 9 13 18 9 -20 1 8 5 -17 -20 -20 -20 -20 -20 -20 -20 -20 -19 14 -20 11 -13 5 -20 -20 -19 15 20 11 32 21 31 10 -20 -20 -20 -20 -20 -20
-12 5 5 5 3 -6 1 -1 1 -12 10 15 24 17 11 15 17 20 22 -20 -19 11 30 -13 -19 -7 -20 -20 -20 -20 -20 -20 -19 12 15 -20 -20 -15 -12 -20 -20 -20 -20 16 -4 5 4 -8 -20 -20 -20 -8 -20 -11
-20 -19 9 13 11 9 4 4 19 23 26 29 27 15 18 16 -1 7 -20 -20 -20 -20 26 -0 -17 -20 -20 -20 -15 7 -8 4 -20 -11 24 -14 -11 -0 -13 2 9 -16 -20 -20 -20 -13 -2 -19 -20 -20 -20 -20 -20 -20
-11 14 16 14 10 4 -17 1 5 5 19 31 26 20 16 20 6 12 1 14 5 -3 -7 -3 -20 -20 -20 -18 7 -20 8 14 0 2 -12 -14 -18 -20 7 11 3 -20 -20 -20 -20 12 -16 -20 -20 9 4 -20 -20 -20
21 28 25 7 15 11 -7 -17 -20 2 -4 28 30 24 28 33 30 4 -20 17 32 13 -1 -5 -16 2 -13 11 14 14 3 16 0 -11 -18 -7 -20 -19 -9 -20 -20 -20 -11 -0 -20 -15 -20 -20 -20 -16 -17 -20 -20 -20
29 33 25 1 15 14 10 3 5 19 25 35 34 35 21 18 5 -6 25 22 37 33 30 -13 -20 -20 -11 1 16 35 20 -20 -20 -20 -20 -20 -20 -20 -20 -20 -20 -20 -20 -20 -20 -20 -20 -20 -20 -20 -20 -20 -20 -20
12 7 4 7 10 13 5 5 13 35 36 32 27 23 -6 14 1 32 17 9 16 7 -20 -20 -20 -20 -20 -20 14 19 -20 -20 -20 -20 -20 -20 -11 -11 -20 -20 -20 -20 -20 -20 -20 -20 -20 -20 -20 -20 -20 -20 -20 -20
-2 14 4 -20 -5 -15 -1 12 22 23 28 -10 -0 24 10 21 21 18 8 -6 -13 -20 -20 -20 -20 -20 -20 6 22 -20 -20 -20 -20 1 3 -19 -1 -19 -20 -20 -20 -20 -20 -20 -20 -20 -20 -20 -20 -20 -20 -20 -20 -20
15 -11 -16 -19 4 -1 21 16 10 -6 8 9 13 27 -7 12 15 -18 -14 4 -20 -20 -20 -20 -20 -20 -20 3 -18 -20 -20 -20 -20 -15 -17 -15 -14 -20 -20 -20 -20 -20 -20 -20 -20 -20 -20 -20 -20 -20 -20 -11 7 -6
10 1 -18 8 6 16 30 22 4 35 30 26 18 9 8 -20 -20 -20 -20 -20 -20 -20 -20 -20 -20 14 -20 -20 -20 -20 -20 -20 -10 4 -20 -5 -20 -20 -20 -20 -20 -20 -20 -20 -20 -20 -20 -20 -20 -17 -15 -8 1 1
22 15 18 26 28 33 33 21 31 32 25 15 -7 -15 -20 -20 -19 -15 -20 -20 -20 -20 -20 -20 -20 -20 -20 -20 -20 -20 -13 -20 -3 -20 -17 -17 -12 -20 -20 -18 -20 -17 -17 -20 -20 -20 -20 -20 -20 -20 -19 -18 -6 6
-3 21 33 28 30 31 21 18 29 11 10 -10 -20 -4 -14 -20 -18 -20 -20 -20 -20 -20 -20 -20 -20 -20 -20 -20 -20 -20 -3 -19 -19 -9 -18 -20 -20 -20 -20 -20 -20 -20 -20 -20 -20 -20 -20 -20 -20 -20 -20 -20 -19 -10
6 33 27 30 27 7 3 15 9 11 -18 -20 -20 -16 -17 -9 -16 -20 -20 -18 -20 -20 -20 -20 -20 -20 14 -20 1 -4 -19 -20 -20 -20 -20 -20 -20 -20 -15 -20 -20 -20 -20 -20 -20 -20 -20 -20 -20 -20 -20 -10 -19 -17
17 25 26 13 10 15 16 11 8 -6 -20 -5 -20 -18 -20 -20 -19 -20 -11 -20 -19 -19 -19 -20 -20 -20 -19 -3 -20 -2 -14 -5 -19 -20 -20 -20 -20 -20 -20 -20 -20 -20 -20 -20 -20 -20 -20 -20 -20 -20 -19 -17 -19 -15
14 14 10 -13 -20 -20 -7 -8 -19 -11 6 -9 -7 -20 -20 -10 -17 -18 -20 -19 -10 -20 -20 -20 -20 -20 -20 -17 -20 -20 -20 -20 -17 -16 -18 -20 -20 -20 -20 -20 -20 -20 -20 -20 -20 -20 -17 -20 -20 -14 -7 -15 -11 2
-1 16 20 24 2 -20 -20 -20 -20 -20 -20 -20 -20 -20 -19 1 -12 -20 -20 -20 -20 -20 -10 -20 -20 -20 -19 -20 -20 -20 -10 -20 -20 -9 5 -20 -20 -20 -20 -20 -20 -20 -20 -20 -20 -20 -15 -20 -20 -20 -20 -18 -18 -5
2 17 9 1 5 -10 -20 -20 1 -8 -11 -2 -20 -20 -16 -20 -20 -20 -20 -20 -19 -20 -10 -11 -19 -20 -20 -20 -3 -20 -20 -20 3 -8 -17 6 -20 -20 -20 -17 -9 -20 -20 -19 -20 -20 -20 -20 -17 -17 -18 -18 -17 -19
-20 -20 -13 -12 -13 -20 -20 -20 -20 -16 -2 7 3 1 -8 -20 -20 -20 -20 -20 -13 -13 -17 -14 -20 -20 -1 -20 -20 -20 -19 0 -18 -20 -20 -20 -3 -16 -8 -18 -20 -19 -20 -20 -20 -20 -20 -20 -20 -20 -20 -19 -14 -8
-20 -20 -20 -20 -20 -20 -5 21 -6 -1 -7 -12 -5 -4 -5 -20 -16 -12 -19 -3 -0 2 4 8 -5 -14 -4 -13 -20 -20 -20 -20 -20 -2 -20 -20 -20 -20 -20 -20 -20 -19 -16 -10 -20 -16 -6 -10 -20 -20 -13 -5 -6 -5
-20 -20 -20 -20 -11 -20 -20 -20 -14 -4 -13 -3 -4 -2 4 -9 -20 -10 -3 7 7 -3 -13 -6 -16 12 -5 -16 -20 -20 -20 -18 -20 -20 -20 -20 -20 -20 -20 -20 -20 -15 -8 -8 -2 2 2 -15 -15 -14 -14 -12 -2 -2
-20 -20 -20 -20 -20 -20 -20 -20 -2 -20 -20 -16 -3 -7 -2 8 -6 -0 1 7 -11 -20 -20 -3 -18 -20 -20 -20 -20 -20 -20 -2 -20 -20 -20 -13 -20 -20 -20 -19 -17 -17 -16 -14 -7 -8 -7 -12 -18 -20 -20 -20 -20 -20
-20 -20 -20 -20 -20 -20 -20 -20 -20 -20 -20 -20 -14 -17 -20 -20 -20 -20 -2 4 -16 -12 -16 -20 -20 -13 -20 -20 -20 -20 -20 -20 -20 -20 -20 -20 -19 -11 -16 -20 -20 -2 -3 -19 -20 -20 -20 -20 -20 -20 -20 -20 -20 -20
-20 -20 -10 -20 -20 -20 -20 -20 -20 -20 -20 -20 -20 -20 -20 -20 -20 5 -13 -3 2 -4 -20 -20 -20 -20 -20 -19 -16 -20 -20 -20 -20 -13 -20 -20 -20 -20 -20 -20 -19 -0 -20 -20 -20 -20 -20 -20 -20 -20 -20 -20 -20 -20
-19 -20 -20 -20 -20 -20 -20 -20 -20 -20 -20 -20 -20 -20 -20 -20 -10 0 1 -20 8 4 -3 -20 -20 -20 -20 -20 -20 -20 -11 -19 -20 -20 -20 -20 -20 -20 -20 -20 -20 -20 -20 -20 -20 -20 -20 -20 -20 -20 -20 -20 -20 -20
-20 -20 -20 -20 -20 -20 -8 -20 -13 -14 -20 -19 -20 -20 -18 -5 -0 2 7 -20 -20 -20 -20 -18 6 -3 -20 -20 -20 -19 -17 -16 -9 -20 -20 -20 -20 -15 -1 -17 -20 -20 -20 -20 -20 -20 -20 -20 -20 -20 -20 -20 -20 -20
-17 -20 -20 -20 -20 -20 6 -20 -20 -20 -20 -20 -20 -18 -20 -20 -18 -20 -20 -20 -18 -20 -20 -20 -20 -20 -20 -18 -20 -20 -20 -20 -20 -20 -20 -20 -15 -15 -20 -18 -12 -20 -20 -20 -20 -20 -20 -20 -20 -20 -20 -20 -20 -20
-20 -20 -20 -20 -17 -17 -20 -18 -20 -20 -20 -20 -20 -20 -20 -17 -20 -20 -20 -20 -20 -20 -20 -20 -20 -20 -20 -20 -20 -20 -20 -20 -20 -20 -20 -20 -20 -20 -20 -20 -20 -20 -20 -20 -20 -20 -20 -20 -20 -20 -20 -20 -20 -20
-20 -20 -20 -20 -10 1 1 -0 -19 -20 -20 -20 -20 -20 -20 -20 -20 -20 -20 -19 -20 -20 -20 -20 -20 -20 -20 -20 -20 -20 -20 -20 -20 -20 -20 -20 -20 -20 -20 -20 -20 -20 -20 -20 -20 -20 -20 -20 -20 -20 -20 -20 -20 -20
-20 -20 -20 -20 -20 -20 -20 -20 -20 -7 -20 -20 -20 -20 -20 -20 -20 -20 -20 -20 -20 -20 -20 -20 -20 -20 -20 -20 -20 -20 -20 -20 -20 -20 -20 -20 -20 -20 -20 -20 -20 -20 -20 -20 -20 -20 -20 -20 -20 -20 -20 -20 -20 -20

GFSWCAN_prec_radar_108.txt.gz
Reflectivity
12 12 6 -20 -20 -20 -3 -8 -11 -6 -20 15 -20 15 20 20 20 -17 -20 -14 -2 13 -20 -20 -20 -20 -20 -20 -20 -20 -20 -3 -13 -6 -20 -20 -20 -1 -13 4 11 22 21 6 7 9 -12 -16 -16 12 22 -20 -13 -11
2 8 6 4 13 12 -20 -14 -20 2 -20 -20 -20 -16 -16 -17 -20 22 5 -20 -20 15 -20 -20 -20 -20 -20 -20 -20 -20 -20 8 26 19 14 7 16 11 13 15 16 26 28 -9 -20 -20 -20 -20 18 26 -3 -20 -20 -20
10 6 -12 -19 -18 8 13 11 7 -12 14 -20 -20 -20 -20 -20 -4 16 -8 2 -0 9 -13 -20 -20 -20 -20 -20 -20 -20 -20 -20 3 -14 -9 -20 -14 -20 -15 -12 12 32 22 20 12 -20 -20 22 -20 14 23 -20 -20 -20
12 5 6 13 -9 15 -19 -6 -20 -20 -2 -20 -20 -8 -19 -15 6 17 8 -20 -17 0 15 -20 -20 -20 -20 -20 -20 -20 -20 -20 -20 -20 -20 -20 -8 -20 -14 -20 5 32 39 37 22 32 29 4 31 7 -20 -20 -20 -20
12 13 13 -20 -2 -13 14 -3 -20 -20 -20 -19 5 3 -9 16 15 13 -16 -20 -20 -20 -6 -20 -20 -20 -20 -20 -20 -20 -20 -20 -20 2 -7 -12 -14 -16 -20 -10 -3 24 15 18 26 29 29 21 -16 -20 -20 -20 -20 -20
-20 -20 10 -20 -1 -20 -0 -20 -20 -12 9 -20 -3 13 12 15 20 17 24 -20 -19 -20 20 -8 -20 -20 -20 -20 -20 -20 -20 -20 -20 -20 -4 5 -20 -13 -5 1 -17 -12 -5 -13 7 -16 -13 -20 -20 -20 -20 -20 9 -19
16 0 -13 -19 -6 -20 -12 -16 -14 -4 -13 12 15 17 6 27 21 20 -20 -20 -20 -20 25 -10 -20 -20 1 -20 -20 -20 -20 -20 -20 -13 -20 -20 -20 13 -20 -17 15 -6 -20 -20 -20 -13 7 -14 -20 -20 -18 -20 -20 -20
-20 -20 -20 -20 -17 -6 3 7 6 5 13 24 29 30 29 29 26 2 -16 5 -3 -4 -12 -20 -20 -20 -20 -20 -20 -20 14 22 23 18 7 -8 -11 -20 -11 -1 -20 -20 -20 -20 -11 -3 -20 -20 -20 -5 14 5 -9 -20
-20 -17 -4 2 -2 11 9 13 5 4 23 32 35 34 32 33 31 5 -14 28 1 -14 -20 -18 -20 -18 -20 10 -3 28 13 11 11 1 4 2 -20 15 6 -20 -20 -20 -20 -20 -20 -20 -20 -20 -20 -20 -20 -20 -20 -20
2 4 12 20 26 26 26 22 26 18 29 33 38 35 17 19 15 -20 -15 28 36 30 34 -12 -20 -20 -12 -20 -19 19 15 -20 10 -20 -19 7 -17 11 4 -16 -20 -20 -20 -20 -20 -20 -20 -20 -20 -20 -20 -20 -20 -20
24 22 26 28 27 27 11 13 14 21 37 34 27 19 -13 7 5 18 5 -1 -20 -15 -9 -20 -20 -20 -20 -20 -20 3 -14 -20 -20 -20 -20 -20 8 3 -17 -16 -20 -20 -20 -20 -20 -20 -20 -20 -20 -20 -20 -20 -20 -20
25 21 17 13 26 2 7 19 15 30 29 8 -0 23 16 -2 17 -9 17 -2 -14 -20 -20 -20 -20 -20 -20 -20 -20 -1 -20 -20 -20 -5 10 -7 -1 -19 -20 -20 -20 -20 -20 -20 -20 -20 -20 -20 -20 -20 -20 -20 -20 -17
15 -3 -12 -12 0 10 18 13 -10 22 22 13 19 20 -18 -16 8 -8 8 -19 -20 -20 -20 -20 -20 -20 -20 -20 7 -19 -20 -20 -20 -20 -20 -19 -18 -20 -20 -20 -20 -20 -20 -20 -20 -20 -20 -20 -20 -20 -18 -20 -12 -2
-20 -2 -0 13 12 27 21 -4 21 32 19 20 13 7 -17 -16 -20 -20 -20 -20 -20 -20 -20 -20 -20 19 -20 -20 -20 -20 -20 -20 -20 -20 -20 -19 -20 -20 -20 -20 -20 -20 -20 -20 -20 -20 -20 -20 -20 -20 -20 -20 -19 -14
-20 -20 -2 10 21 17 8 24 32 7 11 19 -14 -20 -20 -20 -20 -19 -20 -20 -20 -20 -20 -20 -20 -20 -20 -20 -20 -20 -12 -20 -20 -20 -20 -20 -20 -20 -20 -20 -20 -20 -20 -20 -20 -20 -20 -20 -20 -20 -20 -20 -20 -18
15 26 5 23 20 20 32 29 -10 1 17 -5 -20 -20 -18 -20 -20 -20 -20 -20 -20 -20 -20 -20 -20 -20 -20 -20 -20 -20 -20 -20 -20 -20 -20 -20 -20 -20 -20 -20 -20 -20 -20 -20 -20 -20 -20 -20 -20 -20 -20 -20 -20 -20
18 37 30 22 28 24 6 29 12 17 12 -20 -20 -18 -19 -20 -17 -17 -20 -20 -20 -20 -20 -17 -20 -20 -20 -20 -18 -20 -20 -20 -20 -20 -20 -20 -20 -20 -20 -20 -20 -20 -20 -20 -20 -20 -20 -20 -20 -20 -20 -20 -19 -18
20 21 6 18 28 31 16 26 14 12 -20 -20 -8 -18 -20 -20 -18 -20 -18 -18 -11 -16 -20 -20 -20 -20 -20 -20 -20 -20 -20 -7 -20 -20 -20 -20 -20 -20 -20 -20 -20 -20 -20 -20 -20 -20 -20 -20 -20 -20 -20 -20 -19 -16
-2 18 27 32 22 -1 23 18 -8 -20 -8 -20 -20 -20 -20 -20 -19 -20 -20 -20 -20 -20 -15 -20 -20 -20 -20 -20 -20 -20 -20 -20 -20 -20 -20 -20 -20 -20 -20 -20 -20 -20 -20 -20 -20 -20 -20 -20 -20 -20 -20 -20 -20 -13
31 8 -2 -4 -20 -19 -15 -17 -20 -20 -20 -20 -20 -20 -20 -20 -20 -20 -20 -20 -20 -20 -20 -20 -20 -20 -20 -20 -20 -20 -20 -20 -20 -20 -20 -20 -20 -20 -20 -20 -20 -20 -20 -20 -20 -20 -20 -20 -20 -20 -20 -20 -20 2
22 25 15 -6 -20 -20 -20 -20 -20 -20 -8 -20 -20 -20 -20 -20 -20 -20 -20 -20 -19 -20 -20 -20 -20 -20 -20 -20 -20 -20 -20 -20 -20 -20 -20 -20 -20 -20 -20 -20 -20 -20 -20 -20 -20 -20 -20 -20 -20 -20 -20 -20 -19 -18
25 20 8 -6 7 -12 -20 -20 -20 -20 -20 -19 -18 -20 -20 -20 -20 -20 -20 -20 -16 -18 -19 -19 -20 -20 -20 -20 -20 -20 -20 -20 -20 -20 -20 -20 -19 -20 -20 -20 -20 -20 -20 -20 -20 -20 -20 -20 -20 -20 -20 -20 -20 -20
-20 -20 -18 -19 -19 -20 -20 16 -14 -20 -20 -20 -20 -20 -20 -20 -20 -20 -20 -5 -6 -18 -17 -20 -10 -16 -20 -20 -20 -20 -20 -20 -20 -20 -20 -20 -20 -20 -20 -20 -20 -20 -20 -20 -10 -19 -20 -20 -20 -20 -20 -19 -20 -20
-20 -20 -20 -20 -20 -20 -16 -20 -20 -20 -14 -17 -20 -20 -12 -20 -20 -20 -17 -12 -9 -13 -20 -20 -3 -7 -20 -20 -20 -20 -20 -20 -20 -20 -20 -20 -20 -20 -20 -20 -20 -20 -20 -20 -20 -20 -20 -20 -20 -20 -20 -20 -20 -20
-20 -20 -20 -20 -20 -20 -20 -20 -20 -20 -20 -20 -20 -20 -2 -12 -20 -20 -20 -4 -20 -20 -20 -20 -20 -20 -20 -20 -20 -20 -20 -20 -20 -20 -20 -20 -20 -20 -20 -20 -20 -20 -20 -20 -20 -20 -20 -20 -20 -20 -20 -20 -20 -20
-20 -20 -20 -20 -20 -20 -20 -20 -20 -20 -20 -20 -20 -20 -20 -20 -20 -20 -9 -20 -20 -20 -20 -20 -20 -20 -20 -20 -20 -20 -20 -20 -20 -20 -20 -20 -20 -20 -20 -20 -20 -15 -19 -20 -20 -20 -20 -20 -20 -20 -20 -20 -20 -20
-20 -20 -20 -20 -20 -20 -20 -20 -20 -20 -20 -20 -20 -20 -20 -20 -20 -15 -20 -20 -18 -20 -20 -20 -20 -20 -20 -20 -20 -20 -20 -20 -20 -20 -20 -20 -20 -20 -20 -20 -20 -20 -20 -20 -20 -20 -20 -20 -20 -20 -20 -20 -20 -20
-19 -20 -20 -20 -20 -20 -20 -20 -20 -20 -20 -20 -20 -20 -20 -20 -20 -20 -20 -17 -19 -20 -20 -20 -20 -20 -20 -20 -20 -20 -20 -20 -20 -20 -20 -20 -20 -20 -20 -20 -20 -20 -20 -20 -20 -20 -20 -20 -20 -20 -20 -20 -20 -20
-20 -20 -20 -20 -20 -20 -20 -20 -20 -20 -20 -20 -20 -20 -20 -18 -12 -7 -20 -20 -20 -20 -20 -20 -20 -20 -20 -20 -20 -20 -20 -20 -20 -20 -20 -20 -20 -20 -20 -20 -20 -20 -20 -20 -20 -20 -20 -20 -20 -20 -20 -20 -20 -20
-20 -20 -20 -20 -20 -15 -20 -20 -20 -20 -20 -20 -20 -20 -20 -20 -14 -20 -20 -20 -20 -20 -20 -20 -20 -20 -20 -20 -20 -20 -20 -20 -20 -20 -20 -20 -20 -19 -20 -20 -20 -20 -20 -20 -20 -20 -20 -20 -20 -20 -20 -20 -20 -20
-20 -20 -20 -20 -20 -19 -20 -20 -20 -20 -20 -20 -20 -20 -20 -20 -20 -20 -20 -20 -20 -20 -20 -20 -20 -20 -20 -20 -20 -20 -20 -20 -20 -20 -20 -20 -20 -20 -20 -20 -20 -20 -20 -20 -20 -20 -20 -20 -20 -20 -20 -20 -20 -20
-20 -20 -20 -20 -20 -20 -20 -20 -20 -20 -20 -20 -20 -20 -20 -20 -20 -20 -20 -20 -20 -20 -20 -20 -20 -20 -20 -20 -20 -20 -20 -20 -20 -20 -20 -20 -20 -20 -20 -20 -20 -20 -20 -20 -20 -20 -20 -20 -20 -20 -20 -20 -20 -20
-20 -20 -20 -20 -20 -20 -20 -20 -20 -20 -20 -20 -20 -20 -20 -20 -20 -20 -20 -20 -20 -20 -20 -20 -20 -20 -20 -20 -20 -20 -20 -20 -20 -20 -20 -20 -20 -20 -20 -20 -20 -20 -20 -20 -20 -20 -20 -20 -20 -20 -20 -20 -20 -20

GFSWCAN_prec_radar_111.txt.gz
Reflectivity
18 13 -17 1 -2 9 9 -20 -20 -7 -20 6 -20 -10 18 13 14 -10 -20 -20 -8 4 -20 -20 -20 -20 -20 -20 -15 -20 -20 -20 -20 12 -7 -20 6 6 7 -5 16 18 29 17 18 -9 -20 -19 -20 9 12 -2 12 17
-20 -0 -10 12 12 9 -20 -20 -13 -10 -17 -20 -20 -15 7 9 21 22 -12 -20 -2 9 -20 -20 -20 -20 -20 -20 -20 -20 -20 -20 -19 -20 -9 -9 -4 10 -12 11 20 24 20 13 -16 -20 -18 -20 22 27 34 -20 -20 -20
14 -14 9 15 9 -20 6 11 -6 -20 -14 -20 -11 8 -20 -5 16 13 -20 -10 24 29 -20 -20 -20 -20 -20 -20 -20 1 -20 -20 3 -20 -20 -20 -17 -20 -11 14 15 26 31 31 9 -20 -19 -20 18 9 32 21 -2 -20
21 14 -17 -0 -0 10 -4 -3 15 14 -2 -20 -7 -3 -20 -20 -13 19 7 -20 -4 11 6 -20 -20 -20 -20 -20 -20 -20 -20 -20 -10 -20 -8 -20 -20 -20 9 8 18 31 28 5 31 28 22 -3 -20 -20 -20 -7 -20 -20
1 13 -16 10 -20 7 -20 4 5 -20 -20 -20 -20 -20 -20 9 20 8 11 -0 -9 -16 -3 -20 -20 -20 -20 -20 -20 -20 -20 -20 -20 -1 9 2 -20 -20 -20 2 13 25 14 22 16 27 25 17 20 -5 6 15 9 12
16 13 -20 7 15 1 -20 -20 4 15 9 -20 -7 -20 -11 -7 10 23 26 -9 14 -20 23 -20 -20 -20 -20 -20 -20 -20 -20 -20 -20 -19 -10 -2 -20 8 4 8 -19 -20 -19 9 13 11 18 18 17 16 17 -20 -19 -20
19 10 8 -12 -3 -14 -20 -20 -20 -20 -20 -20 -20 -20 13 14 10 35 -9 -20 -20 -2 23 -20 -20 -20 -20 -20 -20 -20 -20 -20 -20 -12 -2 -20 -20 8 -20 -20 -20 -20 -20 -20 -20 -18 5 15 11 2 31 30 0 -17
6 18 -1 16 16 13 -20 -17 -20 -20 -20 3 -2 19 15 9 17 37 -17 -1 -19 -7 -19 -20 -20 -20 -20 -20 -20 -17 -9 -14 6 -4 19 16 -15 24 -3 8 -18 -20 -12 9 -12 -2 -20 -20 -20 -15 -8 -7 -20 -20
-1 19 19 14 -15 -12 -20 -20 -20 8 12 17 31 30 32 31 34 20 -5 -11 -15 -20 -20 -20 -19 -20 -20 8 8 22 26 9 14 7 -6 24 4 11 4 -20 -20 -20 -20 -20 -20 -20 -20 -20 -20 -20 -20 -20 -20 -20
20 12 -16 -17 7 -20 -19 14 6 9 31 36 38 43 24 20 11 18 26 22 28 29 20 -20 -20 -20 -10 -6 6 -19 36 -17 -0 1 -17 -20 -15 2 -4 -20 -20 -20 -20 -20 -20 -20 -20 -20 -20 -20 -20 -20 -20 -20
-20 -13 -17 -20 -12 1 14 7 21 33 37 40 26 24 3 7 14 28 -20 -13 12 9 -20 -20 -20 -20 -20 12 -6 -20 2 -3 -19 -20 -20 -14 1 1 -15 -9 -20 -20 -20 -20 -20 -20 -20 -8 -20 -20 -20 -20 -20 -20
-14 4 12 10 9 18 29 31 33 37 30 26 3 16 26 26 20 -11 -18 -20 -10 -20 -20 -20 -20 -20 -20 -20 -20 -19 -20 -20 -20 -3 7 -6 -6 -20 -20 -20 -20 -20 -20 -20 -20 -20 -20 -20 -20 -20 -20 -20 -20 -19
9 16 26 29 30 29 29 24 30 21 15 23 25 27 18 -19 -16 -18 -20 -20 -20 -20 -20 -20 -4 -20 17 -19 -20 -20 -20 -20 -20 -20 -20 -20 -20 -20 -20 -20 -20 -20 -20 -20 -20 -20 -20 -20 -20 -20 -20 -20 -20 -19
31 30 31 32 29 29 32 24 5 32 21 25 13 17 -3 -16 -20 -20 -20 -20 -20 -20 -20 -20 -20 -20 -20 -6 -14 -20 -20 -20 -15 -20 -20 -20 -20 -20 -20 -20 -20 -20 -20 -20 -20 -20 -20 -20 -20 -20 -20 -20 -20 -20
21 15 12 25 23 24 26 17 30 22 31 15 -20 -20 -20 -20 -20 -20 -20 -20 -3 -20 -20 -20 -20 -20 -20 -20 -20 -20 -20 -20 -20 -20 -20 -20 -20 -20 -20 -20 -20 -20 -20 -20 -20 -20 -20 -20 -20 -20 -20 -20 -20 -20
-20 12 23 24 27 19 29 35 21 23 13 4 -20 -20 -20 -20 -20 -20 -20 -20 -20 -10 -20 -20 -20 -20 -20 -20 -20 -20 -20 -20 -20 -20 -20 -20 -20 -20 -20 -20 -20 -20 -20 -20 -20 -20 -20 -20 -20 -20 -20 -20 -20 -20
23 18 23 31 33 30 31 18 -9 16 13 -17 -20 -18 -20 -17 -19 -19 -19 -19 -20 -20 -20 -20 -20 -20 -20 -20 -20 -20 -20 -20 -20 -20 -20 -20 -20 -20 -20 -20 -20 -20 -20 -20 -20 -20 -20 -20 -20 -20 -20 -20 -20 -20
2 21 33 27 15 26 27 11 7 12 -10 -20 -20 -18 -20 -20 -19 -19 -20 -14 4 2 -20 -20 -20 -20 -20 -20 -20 -20 -20 -20 -20 -20 -20 -20 -20 -20 -20 -20 -20 -20 -20 -20 -20 -20 -20 -20 -20 -20 -20 -20 -20 -20
24 13 18 22 -12 15 18 3 -9 -20 -2 -20 -18 -20 -20 -16 -19 -19 -19 -17 -8 -6 -20 -20 -20 -20 -20 -20 -20 -20 -20 -20 -20 -20 -20 -20 -20 -20 -20 -20 -20 -20 -20 -20 -20 -20 -20 -20 -20 -20 -20 -20 -20 -20
19 26 29 13 -13 -14 7 -15 -18 -20 -20 -20 -20 -20 -20 -20 -20 -20 -20 -20 -16 -5 -17 -20 -20 -20 -20 -20 -20 -20 -20 -20 -20 -20 -20 -20 -20 -20 -20 -20 -20 -20 -20 -20 -20 -20 -20 -20 -20 -20 -20 -20 -20 -20
-14 11 26 15 -0 -20 -20 -20 -20 -20 -20 -20 -20 -20 -20 -20 -20 -20 -20 -20 -20 -20 -20 -20 -20 -20 -20 -20 -20 -20 -20 -20 -20 -20 -20 -20 -20 -20 -20 -20 -20 -20 -20 -20 -20 -20 -20 -20 -20 -20 -20 -20 -20 -20
24 13 -12 -20 -20 -20 -20 -20 -20 -20 -20 -20 -20 -20 -20 -20 -20 -20 -20 -20 -20 -20 -20 -20 -20 -20 -20 -20 -20 -20 -20 -20 -20 -20 -20 -20 -20 -20 -20 -20 -20 -20 -20 -20 -20 -20 -20 -20 -20 -20 -20 -19 -20 -20
12 17 19 13 -2 -20 -20 10 -20 -20 -20 -20 -20 -20 -20 -20 -20 -20 -20 -20 -20 -20 -18 -19 -18 -20 -20 -20 -20 -20 -20 -20 -20 -20 -20 -20 -20 -20 -20 -20 -20 -20 -20 -20 -20 -20 -20 -19 -19 -20 -20 -20 -20 -20
-8 -7 -20 -18 -17 -13 -16 -20 -20 -20 -16 -20 -20 -20 -20 -20 -20 -20 -20 -20 -20 -20 -20 -20 -20 -20 -20 -20 -20 -20 -20 -20 -20 -20 -20 -20 -20 -20 -20 -20 -20 -20 -20 -20 -20 -20 -20 -20 -20 -20 -20 -20 -20 -20
-20 -20 -20 -20 -20 -20 -20 -20 -20 -20 -20 -20 -20 -20 -20 -20 -20 -20 -20 -20 -20 -20 -20 -20 -20 -20 -20 -20 -20 -20 -20 -20 -20 -20 -20 -20 -20 -20 -20 -20 -20 -20 -20 -20 -20 -20 -20 -20 -20 -20 -20 -20 -20 -20
-20 -20 -20 -20 -20 -20 -20 -20 -20 -20 -20 -20 -20 -20 -20 -20 -20 -20 -19 -20 -20 -20 -20 -20 -20 -20 -20 -20 -20 -20 -20 -20 -20 -20 -20 -20 -20 -20 -20 -20 -20 -20 -20 -20 -20 -20 -20 -20 -20 -20 -20 -20 -20 -20
-20 -20 -20 -20 -20 -20 -20 -20 -20 -20 -20 -20 -20 -20 -20 -20 -20 -20 -20 -20 -20 -20 -20 -20 -20 -20 -20 -20 -20 -20 -20 -20 -20 -20 -20 -20 -20 -20 -20 -20 -20 -20 -20 -20 -20 -20 -20 -20 -20 -20 -20 -20 -20 -20
-20 -20 -20 -20 -20 -20 -20 -20 -20 -20 -20 -20 -20 -20 -20 -20 -20 -20 -20 -20 -20 -20 -20 -20 -20 -20 -20 -20 -20 -20 -20 -20 -20 -20 -20 -20 -20 -20 -20 -20 -20 -20 -20 -20 -20 -20 -20 -20 -20 -20 -20 -20 -20 -20
-20 -20 -20 -20 -20 -20 -20 -20 -20 -20 -20 -20 -20 -20 -20 -20 -20 -20 -20 -20 -20 -20 -20 -20 -20 -20 -20 -20 -20 -20 -20 -20 -20 -20 -20 -20 -20 -20 -20 -20 -20 -20 -20 -20 -20 -20 -20 -20 -20 -20 -20 -20 -20 -20
-20 -20 -20 -20 -20 -20 -20 -20 -20 -20 -20 -20 -15 -20 -20 -20 -20 -20 -20 -20 -20 -20 -20 -20 -20 -20 -20 -20 -20 -20 -20 -20 -20 -20 -20 -20 -20 -20 -20 -20 -20 -20 -20 -20 -20 -20 -20 -20 -20 -20 -20 -20 -20 -20
-20 -20 -20 -20 -20 -20 -20 -20 -20 -20 -20 -20 -20 -20 -20 -20 -20 -20 -20 -20 -20 -20 -20 -20 -20 -20 -20 -20 -20 -20 -20 -20 -20 -20 -20 -20 -20 -20 -20 -20 -20 -20 -20 -20 -20 -20 -20 -20 -20 -20 -20 -20 -20 -20
-20 -20 -20 -20 -20 -20 -20 -20 -20 -20 -20 -20 -20 -20 -20 -20 -20 -20 -20 -20 -20 -20 -20 -20 -20 -20 -20 -20 -20 -20 -20 -20 -20 -20 -20 -20 -20 -20 -20 -20 -20 -20 -20 -20 -20 -20 -20 -20 -20 -20 -20 -20 -20 -20
-20 -20 -20 -20 -20 -20 -20 -20 -20 -20 -20 -20 -20 -20 -20 -20 -20 -20 -20 -20 -20 -20 -20 -20 -20 -20 -20 -20 -20 -20 -20 -20 -20 -20 -20 -20 -20 -20 -20 -20 -20 -20 -20 -20 -20 -20 -20 -20 -20 -20 -20 -20 -20 -20

GFSWCAN_prec_radar_114.txt.gz
Reflectivity
-20 -20 -20 20 -17 -20 20 12 4 7 8 5 -20 -20 -19 -20 7 -20 -20 -20 -20 -20 -20 -20 -20 -20 -20 -20 -20 -20 -20 -20 -20 -20 -20 -20 -1 7 19 -0 14 19 10 4 5 -1 -20 -20 15 17 -15 16 28 31
16 16 11 14 -5 -20 -20 -16 8 8 -11 8 -19 -20 -18 10 -4 2 11 -20 -20 12 -20 -20 -20 -20 -20 -20 -20 -20 -20 7 -20 -20 -20 -20 -19 -2 -6 9 25 18 22 19 2 -20 -20 -20 -11 -2 -3 28 -1 -20
14 15 -6 10 -20 -20 9 10 7 -17 11 12 -20 -20 -14 -20 -5 17 24 -8 13 22 -0 -17 -20 -20 -20 -20 -20 -20 -20 -17 -16 -14 6 -9 -20 -20 -9 4 10 19 32 23 -13 6 -20 -20 -20 -6 25 37 4 1
-6 1 13 9 -15 -20 12 -20 -20 11 18 -20 -20 -20 -20 0 7 -14 22 -7 7 7 -15 -20 -20 -20 -20 -20 -20 -20 -20 -20 -20 -1 8 11 -20 -20 -15 -18 17 12 21 14 21 18 -2 -12 -15 -20 -6 1 -20 -18
20 16 12 11 8 -19 5 -1 14 -10 -20 -10 13 -20 17 -20 -13 19 8 6 -2 -15 -10 -20 -20 -20 -20 -20 -20 -20 -20 -20 -20 -20 -20 9 -12 -20 -20 -20 -12 -11 16 18 18 30 36 29 37 26 3 25 19 -13
5 20 -14 9 2 -9 -20 -20 15 -11 17 -19 -20 -20 -20 -20 19 13 29 -20 -20 -1 20 -20 -20 -20 -20 -20 -20 -20 -20 -20 -20 -20 -20 -20 -20 14 -4 10 -19 -20 12 27 33 20 35 41 39 26 25 23 20 18
18 7 -13 6 11 10 -20 13 9 12 14 15 10 -20 9 7 7 17 21 -17 -20 6 22 -20 -20 -20 -20 -20 -20 -20 -20 -20 -20 0 -18 -20 -20 16 -16 -20 -20 -20 -20 27 14 -8 -20 -20 -9 -20 -16 8 25 2
19 12 1 16 -4 4 -3 14 7 -20 -18 -20 -20 -8 19 17 18 20 5 16 -10 15 1 -20 -20 -20 -20 -20 -20 -20 -19 -15 11 -17 20 0 -0 5 -3 -20 -20 -20 -20 -20 -20 -19 -20 -20 -20 -20 -20 -20 -19 -20
-3 19 -12 13 -20 7 14 -5 0 7 14 13 -0 19 28 29 30 11 -5 31 6 -15 -20 -20 -20 -20 -20 -17 -16 21 29 15 4 3 9 20 -17 7 -10 -20 -20 -20 -14 -20 -20 -20 -20 -20 -20 -20 -20 -20 -20 -20
12 19 20 15 19 5 15 16 19 13 -20 -9 29 41 21 12 -2 7 40 28 23 24 23 -19 -20 -20 -20 -18 36 -16 9 18 -1 -2 9 2 3 -4 -5 -20 -20 -20 -20 -20 -20 -20 -20 -20 -20 -20 -20 -20 -20 -20
-20 -20 -9 17 16 17 16 -2 -20 -18 18 34 27 2 -17 16 6 33 8 -7 10 14 -17 -11 -20 -20 -20 -20 1 -15 13 16 -10 -20 3 -20 -10 -3 -20 -12 -20 -20 -20 -20 -20 -20 -20 -9 -10 -20 -20 -20 -20 -18
-9 1 -4 -4 -6 -20 -20 -16 -10 18 34 29 8 15 29 29 19 8 -19 -20 -20 -20 -20 -20 -20 -20 -20 -20 -10 -11 -17 -18 -20 -20 -9 -20 -18 -20 -20 -20 -20 -20 -20 -20 -20 -20 -20 -20 -20 -20 -20 -20 -20 -20
1 -16 -11 6 -20 -20 -20 11 19 26 35 33 30 28 24 13 5 -20 -20 -20 -20 -20 -20 -20 -9 -20 -20 -20 -19 -20 -20 -20 -20 -20 -18 -20 -20 -20 -20 -20 -20 -20 -20 -20 -20 -20 -20 -20 -20 -20 -20 -20 -20 -20
-10 -16 -20 -16 17 16 13 9 31 37 38 29 12 22 -20 -15 -20 -20 -20 -20 -20 -20 -20 -20 -20 -20 -17 -13 -13 -3 -20 -20 -2 -20 -20 -20 -20 -20 -20 -20 -20 -20 -20 -20 -20 -20 -20 -20 -20 -20 -20 -20 -20 -20
11 9 10 9 10 18 29 34 33 38 36 20 -12 -20 -20 -20 -20 -20 -19 -20 -20 -20 -20 -20 -20 -20 -20 -1 -19 -20 -20 -20 -20 -20 -20 -20 -20 -20 -20 -20 -20 -20 -20 -20 -20 -20 -20 -20 -20 -20 -20 -20 -20 -20
33 36 36 27 23 23 30 40 36 32 22 -10 -20 -20 -20 -20 -20 -20 -20 -20 -20 -20 -20 0 -11 15 -20 -20 -20 -20 -20 -20 -20 -20 -20 -20 -20 -20 -20 -20 -20 -20 -20 -20 -20 -20 -20 -20 -20 -20 -20 -20 -20 -20
31 29 34 27 29 37 33 29 28 18 1 -20 -20 -20 -20 -5 -4 -20 -20 -20 -20 -20 -10 -20 -20 -20 -20 -20 -20 -20 -20 -20 -20 -20 -20 -20 -20 -20 -20 -20 -20 -20 -20 -20 -20 -20 -20 -20 -20 -20 -20 -20 -20 -20
17 1 30 35 31 25 28 30 18 14 -8 -20 -20 -19 -20 -20 -20 -20 -20 -19 -15 -9 -14 -20 -20 -20 -20 -20 -20 -20 -20 -20 -20 -20 -20 -20 -20 -20 -20 -20 -20 -20 -20 -20 -20 -20 -20 -20 -20 -20 -20 -20 -20 -20
6 16 16 -6 13 19 17 17 -8 -20 -20 -20 -19 -19 -20 -20 -18 -20 -19 -18 0 -9 -16 -20 -19 -20 -20 -20 -20 -20 -20 -20 -20 -20 -20 -20 -20 -20 -20 -20 -20 -20 -20 -20 -20 -20 -20 -20 -20 -20 -20 -20 -20 -20
28 33 34 23 4 -19 -17 -14 -20 -20 -20 -20 -20 -20 -20 -10 -11 -20 -20 -20 -18 -9 3 3 -19 -20 -20 -20 -20 -20 -20 -20 -20 -20 -20 -20 -20 -20 -20 -20 -20 -20 -20 -20 -20 -20 -20 -20 -20 -20 -20 -20 -20 -20
26 25 -15 -20 -13 -20 -20 -20 -20 -20 -20 -20 -20 -20 -20 -20 -20 -20 -20 -20 -20 -20 -20 -20 -20 -20 -20 -20 -20 -20 -20 -20 -20 -20 -20 -20 -20 -20 -20 -20 -20 -20 -20 -20 -20 -20 -20 -20 -20 -20 -20 -20 -20 -20
23 3 -20 -20 -11 -11 -20 -20 -20 -20 -20 -20 -20 -20 -20 -20 -20 -20 -20 -20 -20 -20 -20 -20 -20 -20 -20 -20 -20 -20 -19 -20 -20 -20 -20 -20 -20 -20 -20 -20 -20 -20 -20 -20 -20 -20 -20 -20 -20 -20 -20 -19 -19 -19
-15 -19 -18 3 -2 -20 -20 -2 -20 -20 -20 -20 -20 -20 -20 -20 -20 -20 -20 -20 -20 -20 -20 -20 -19 -20 -20 -20 -20 -20 -20 -20 -20 -20 -20 -20 -20 -20 -20 -20 -20 -20 -20 -20 -20 -20 -20 -20 -20 -20 -20 -19 -20 -20
14 15 17 1 -20 -19 -19 -20 -20 -20 -20 -20 -20 -20 -20 -20 -20 -20 -20 -20 -20 -20 -20 -19 -20 -20 -20 -20 -20 -20 -20 -20 -20 -20 -20 -20 -20 -20 -20 -20 -20 -20 -20 -20 -20 -20 -20 -20 -20 -20 -20 -20 -20 -20
4 1 4 -16 -20 -20 -20 -20 -20 -20 -20 -20 -20 -20 -20 -20 -20 -20 -20 -20 -20 -20 -20 -20 -20 -20 -20 -20 -20 -20 -20 -20 -20 -20 -20 -20 -20 -20 -20 -20 -20 -20 -20 -20 -20 -20 -20 -20 -20 -20 -20 -20 -20 -20
-20 -20 -20 -20 -20 -20 -20 -20 -20 -20 -20 -20 -20 -20 -20 -20 -20 -20 -20 -20 -20 -20 -20 -20 -20 -20 -20 -20 -20 -20 -20 -20 -20 -20 -20 -20 -20 -20 -20 -20 -20 -20 -20 -20 -20 -20 -20 -20 -20 -20 -20 -20 -20 -20
-20 -20 -20 -20 -20 -20 -20 -20 -20 -20 -20 -20 -20 -20 -20 -20 -20 -20 -20 -20 -20 -20 -20 -20 -20 -20 -20 -20 -20 -20 -20 -20 -20 -20 -20 -20 -20 -20 -20 -20 -20 -20 -20 -20 -20 -20 -20 -20 -20 -20 -20 -20 -20 -20
-20 -20 -20 -20 -20 -20 -20 -20 -20 -20 -20 -20 -20 -20 -20 -20 -20 -20 -20 -20 -20 -20 -20 -20 -20 -20 -20 -20 -20 -20 -20 -20 -20 -20 -20 -20 -20 -20 -20 -20 -20 -20 -20 -20 -20 -20 -20 -20 -20 -20 -20 -20 -20 -20
-20 -20 -20 -20 -20 -20 -20 -20 -20 -20 -20 -20 -20 -20 -20 -20 -20 -20 -20 -20 -20 -20 -20 -20 -20 -20 -20 -20 -20 -20 -20 -20 -20 -20 -20 -20 -20 -20 -20 -20 -20 -20 -20 -20 -20 -20 -20 -20 -20 -20 -20 -20 -20 -20
-20 -20 -20 -20 -20 -20 -20 -20 -20 -20 -20 -20 -20 -20 -20 -20 -20 -20 -20 -20 -20 -20 -20 -20 -20 -20 -20 -20 -20 -20 -20 -20 -20 -20 -20 -20 -20 -20 -20 -20 -20 -20 -20 -20 -20 -20 -20 -20 -20 -20 -20 -20 -20 -20
-20 -20 -20 -20 -20 -20 -20 -20 -20 -20 -20 -20 -20 -20 -20 -20 -20 -20 -20 -20 -20 -20 -20 -20 -20 -20 -20 -20 -20 -20 -20 -20 -20 -20 -20 -20 -20 -20 -20 -20 -20 -20 -20 -20 -20 -20 -20 -20 -20 -20 -20 -20 -20 -20
-20 -20 -20 -20 -20 -20 -20 -20 -20 -20 -20 -20 -20 -20 -20 -20 -20 -20 -20 -20 -20 -20 -20 -20 -20 -20 -20 -20 -20 -20 -20 -20 -20 -20 -20 -20 -20 -20 -20 -20 -20 -20 -20 -20 -20 -20 -20 -20 -20 -20 -20 -20 -20 -20
-20 -20 -20 -20 -20 -20 -20 -20 -20 -20 -20 -20 -20 -20 -20 -20 -20 -20 -20 -20 -20 -20 -20 -20 -20 -20 -20 -20 -20 -20 -20 -20 -20 -20 -20 -20 -20 -20 -20 -20 -20 -20 -20 -20 -20 -20 -20 -20 -20 -20 -20 -20 -20 -20

GFSWCAN_prec_radar_117.txt.gz
Reflectivity
3 -20 7 -20 -20 14 14 -8 -20 -20 -20 -20 -20 -20 -20 1 16 -20 -20 -20 -20 -20 -20 -20 -20 -20 -20 -20 -15 -20 -20 -20 -20 -20 -11 -20 5 -20 -7 17 18 23 15 18 10 18 -7 -20 23 18 15 -20 27 39
-19 -20 -20 -20 -20 16 16 -20 21 15 -20 6 9 11 -20 12 16 -20 -4 -20 -16 -6 -20 -20 -20 -20 -20 -20 -20 -20 -7 -13 -20 -20 -20 -20 -20 -15 12 7 17 21 24 21 14 -20 -20 -20 -20 -20 -2 14 26 1
18 -18 -15 -18 8 -20 9 -20 -16 -5 -6 -20 -2 -16 4 -20 18 -19 -6 -13 8 23 -3 -19 -20 -20 -20 -20 -20 -20 -20 -20 0 9 27 -10 -16 -20 0 -1 13 9 16 20 18 13 13 -20 -15 -20 5 18 13 -20
17 16 -6 11 -3 -5 13 -20 -20 -17 2 -5 13 11 11 -15 17 8 -20 -7 1 11 2 -20 -20 -20 -20 -20 -20 -20 -20 -20 -20 -17 -16 -3 5 -20 -20 -7 -12 13 18 15 8 38 31 29 26 -3 9 -20 -6 -10
15 16 17 15 15 -15 11 -20 -20 5 -20 -20 15 -10 3 -11 20 -16 -12 4 -13 -20 -7 -20 -20 -20 -20 -20 -20 -20 -20 -20 -20 -20 -14 -14 -13 5 -20 -20 6 4 7 22 23 29 32 33 42 39 28 17 4 -12
19 18 12 15 17 11 10 11 -20 -20 12 15 18 11 -20 19 17 -19 -6 -19 -20 4 8 -9 -20 -20 -20 -20 -20 -20 -20 -20 -20 -19 -20 -20 -20 -0 8 11 -20 -20 17 26 24 39 32 35 31 18 7 20 24 -3
18 15 13 17 16 14 12 7 -12 -20 16 11 15 -20 -20 2 -9 -20 -20 -2 13 -10 23 -20 -20 -20 -20 -20 -20 -20 -20 -20 -20 -19 -2 -10 -20 17 -13 -8 -20 -20 -20 -9 -20 -8 7 -20 10 3 -16 -20 -1 -20
13 18 16 16 5 10 14 9 8 -9 15 14 17 -13 -0 18 3 4 -20 -5 3 13 8 -20 -20 -20 -20 -20 -20 -20 -20 -3 7 0 4 0 -1 2 -5 -20 -20 -20 -20 -20 -20 -20 -10 -14 1 -8 -19 -20 -20 -20
22 1 -12 18 -18 9 6 13 8 10 13 6 -9 14 22 16 17 4 -20 -19 34 -3 -20 -20 -16 -20 -20 -3 12 16 17 3 3 -3 1 13 -20 13 -12 -20 -20 -20 -20 -20 -20 -20 -20 -20 -15 -7 -20 -20 -20 -20
20 19 16 21 19 13 -0 8 4 12 19 -7 10 20 9 8 -12 -1 11 11 25 26 23 -20 -20 -20 -20 -20 5 -12 20 13 7 -2 25 -1 -18 -19 -3 -20 -20 -20 -20 -20 -20 -20 -20 -20 -6 -20 -3 -20 -20 -20
17 17 7 19 21 -20 16 9 10 14 18 10 13 6 -20 -3 14 9 15 15 -13 -1 -20 -20 -20 -20 -20 -20 -20 -19 -0 14 7 10 16 6 -20 -13 -15 -13 -20 -20 -20 -20 -20 -20 -20 -10 -6 -20 -20 -20 -20 -20
-3 10 15 19 19 18 17 14 15 13 7 -12 28 -2 28 28 19 -7 -3 -7 -20 -20 -20 -20 -20 -20 -20 -20 -6 -20 4 -8 -20 -19 -11 -12 -19 -16 -20 -20 -10 -20 -20 -20 -20 -20 -20 -20 -20 -20 -20 -20 -20 -20
0 -12 -15 15 17 -14 17 2 11 -20 -14 27 32 14 12 10 3 -20 -20 -20 -20 -20 -20 -15 -20 -20 -20 -20 -20 -20 -17 -20 -20 -20 -19 -20 -20 -20 -20 -20 -20 -20 -20 -20 -20 -20 -20 -20 -20 -20 -20 -20 -20 -20
2 5 14 -12 14 15 15 14 -18 1 25 26 23 15 4 -13 -20 -20 -20 -20 -20 -20 -20 -20 -20 -20 -13 -20 -20 -20 -20 -20 -20 -20 -20 -20 -20 -20 -20 -20 -20 -20 -20 -20 -20 -20 -20 -20 -20 -20 -20 -20 -20 -20
-16 -7 13 16 5 17 -20 -18 -17 25 27 28 -1 -20 -20 -20 -20 -20 -20 -20 -20 -20 -20 -20 -20 -20 -19 -9 -19 -20 -20 -20 -20 -20 -20 -20 -20 -20 -20 -20 -20 -20 -20 -20 -20 -20 -20 -20 -20 -20 -20 -20 -20 -20
-17 -20 13 -9 2 -16 2 3 30 29 26 28 -19 -11 -20 -20 -20 -20 -20 -20 -20 -20 -20 -20 -16 -8 -17 -20 -16 -20 -20 -20 -20 -20 -20 -20 -20 -20 -20 -20 -20 -20 -20 -20 -20 -20 -20 -20 -20 -20 -20 -20 -20 -20
21 25 -2 8 15 20 22 34 33 23 9 9 -20 -20 -20 -6 -12 -20 -20 -20 -20 -20 -20 -20 -12 -20 -20 -20 -20 -20 -20 -20 -20 -20 -20 -20 -20 -20 -20 -20 -20 -20 -20 -20 -20 -20 -20 -20 -20 -20 -20 -20 -20 -20
28 -1 -14 -2 17 36 41 38 20 22 18 -9 -20 -20 -20 -20 -20 -20 -20 -20 -19 -18 -20 -20 -20 -20 -20 -20 -20 -20 -20 -20 -20 -20 -20 -20 -20 -20 -20 -20 -20 -20 -20 -20 -20 -20 -20 -20 -20 -20 -20 -20 -20 -20
32 15 8 26 28 24 23 24 20 14 -15 -20 -20 -20 -20 -19 -18 -20 -20 -16 -17 -18 -19 -20 -4 -20 -20 -20 -20 -20 -20 -20 -20 -20 -20 -20 -20 -20 -20 -20 -20 -20 -20 -20 -20 -20 -20 -20 -20 -20 -20 -20 -20 -20
28 26 24 25 17 -0 14 14 -17 -20 -20 -20 -20 -20 -20 -20 -20 -19 -19 -16 -16 -15 -10 -16 -6 -20 -20 -20 -20 -20 -20 -20 -20 -20 -20 -20 -20 -20 -20 -20 -20 -20 -20 -20 -20 -20 -20 -20 -20 -20 -20 -20 -20 -20
30 29 22 10 1 -20 -20 -20 -20 -20 -20 -20 -20 -20 -20 -20 -20 -20 -20 -20 -20 -20 -20 -20 -20 -19 -19 -20 -20 -20 -19 -20 -20 -20 -20 -20 -20 -20 -20 -20 -20 -20 -20 -20 -20 -20 -20 -20 -20 -20 -20 -20 -20 -20
26 11 15 10 -2 -20 -20 -20 -20 -20 -20 -20 -20 -20 -20 -20 -20 -20 -20 -20 -20 -20 -20 -20 -20 -20 -20 -20 -20 -20 -20 -20 -20 -20 -20 -20 -20 -20 -20 -20 -20 -20 -20 -20 -20 -20 -20 -20 -20 -20 -20 -20 -20 -20
-19 -19 -20 -20 -20 -20 -20 -20 -20 -20 -20 -20 -20 -20 -20 -20 -20 -20 -20 -20 -20 -20 -20 -20 -20 -20 -20 -20 -20 -20 -20 -20 -20 -20 -20 -20 -20 -20 -20 -20 -20 -20 -20 -20 -20 -20 -20 -20 -20 -20 -20 -20 -20 -20
-20 -20 -20 -20 -17 -20 -20 -20 -20 -20 -20 -20 -20 -20 -20 -20 -20 -20 -20 -20 -20 -20 -20 -20 -20 -20 -20 -20 -20 -20 -20 -20 -20 -20 -20 -20 -20 -20 -20 -20 -20 -20 -20 -20 -20 -20 -20 -20 -20 -20 -20 -20 -20 -20
3 -1 -20 -20 -20 -20 -20 -20 -20 -20 -20 -20 -20 -20 -20 -20 -20 -20 -20 -20 -20 -20 -20 -20 -20 -20 -20 -20 -20 -20 -20 -20 -20 -20 -20 -20 -20 -20 -20 -20 -20 -20 -20 -20 -20 -20 -20 -20 -20 -20 -20 -20 -20 -20
-19 -20 -20 -20 -20 -20 -20 -20 -20 -20 -20 -20 -20 -20 -20 -20 -20 -20 -20 -20 -20 -20 -20 -20 -20 -20 -20 -20 -20 -20 -20 -20 -20 -20 -20 -20 -20 -20 -20 -20 -20 -20 -20 -20 -20 -20 -20 -20 -20 -20 -20 -20 -20 -20
-20 -20 -20 -20 -20 -20 -20 -20 -20 -20 -20 -20 -20 -20 -20 -20 -20 -11 -20 -20 -20 -20 -20 -20 -20 -20 -20 -20 -20 -20 -20 -20 -20 -20 -20 -20 -20 -20 -20 -20 -20 -20 -20 -20 -20 -20 -20 -20 -20 -20 -20 -20 -20 -20
-20 -20 -20 -20 -20 -20 -20 -20 -20 -20 -20 -20 -20 -20 -20 -20 -20 -20 -20 -20 -20 -20 -20 -20 -20 -20 -20 -20 -20 -20 -20 -20 -20 -20 -20 -20 -20 -20 -20 -20 -19 -20 -20 -20 -20 -20 -20 -20 -20 -20 -20 -20 -20 -20
-20 -20 -20 -20 -20 -20 -20 -20 -20 -20 -20 -20 -20 -20 -20 -20 -20 -20 -20 -20 -20 -20 -20 -20 -20 -20 -20 -20 -20 -20 -20 -20 -20 -20 -20 -20 -20 -20 -20 -20 -20 -20 -20 -20 -20 -20 -20 -20 -20 -20 -20 -20 -20 -20
-20 -20 -20 -20 -20 -20 -20 -20 -20 -20 -20 -20 -20 -20 -20 -20 -20 -20 -20 -20 -20 -20 -20 -20 -20 -20 -20 -20 -20 -20 -20 -20 -20 -20 -20 -20 -20 -20 -20 -20 -20 -20 -20 -20 -20 -20 -20 -20 -20 -20 -20 -20 -20 -20
-20 -20 -20 -20 -20 -20 -20 -20 -20 -20 -20 -20 -20 -20 -20 -20 -20 -20 -20 -20 -20 -20 -20 -20 -20 -20 -20 -20 -20 -20 -20 -20 -20 -20 -20 -20 -20 -20 -20 -20 -20 -20 -20 -20 -20 -20 -20 -20 -20 -20 -20 -20 -20 -20
-20 -20 -20 -20 -20 -20 -20 -20 -20 -20 -20 -20 -20 -20 -20 -20 -20 -20 -20 -20 -20 -20 -20 -20 -20 -20 -20 -20 -20 -20 -20 -20 -20 -20 -20 -20 -20 -20 -20 -20 -20 -20 -20 -20 -20 -20 -20 -20 -20 -20 -20 -20 -20 -20
-20 -20 -20 -20 -20 -20 -20 -20 -20 -20 -20 -20 -20 -20 -20 -20 -20 -20 -20 -20 -20 -20 -20 -20 -20 -20 -20 -20 -20 -20 -20 -20 -20 -20 -20 -20 -20 -20 -20 -20 -20 -20 -20 -20 -20 -20 -20 -20 -20 -20 -20 -20 -20 -20

GFSWCAN_prec_radar_123.txt.gz
Reflectivity
13 7 -11 12 -20 -20 -12 -4 1 -12 -20 -20 -20 -20 -20 -20 -20 -20 -0 -20 -2 -1 -1 -20 -20 -20 -11 -20 -5 -15 -13 -2 3 -12 10 16 17 16 11 3 14 16 13 19 20 19 28 14 -15 27 28 14 -2 26
9 13 -5 -20 13 -6 8 8 15 13 27 15 -9 -20 -20 -20 -20 -18 7 2 -11 7 -4 -20 -20 -20 -20 -20 -20 -20 -18 -19 6 13 16 8 16 13 4 15 13 17 20 23 24 19 27 15 11 12 6 8 13 29
33 24 14 12 7 10 -18 15 5 -16 -20 -13 -15 -20 -20 -20 -20 -20 -19 -0 7 -7 -19 -19 -19 -20 -20 -20 -20 -20 -20 -20 3 17 17 17 9 6 11 8 14 16 25 21 21 16 18 26 22 27 33 34 29 28
26 31 26 22 13 12 -10 1 -4 -2 -20 -16 6 1 -20 -20 -20 -13 14 8 8 10 5 3 -20 -20 -20 -20 -20 -20 -20 -20 -20 -18 16 11 11 -2 4 -14 9 17 21 6 20 1 5 18 16 27 29 24 28 28
18 24 22 11 -11 -20 -20 -20 -20 -20 -13 4 5 -20 -20 -20 -2 5 19 19 8 5 14 -16 -20 -20 -20 -20 -20 -20 -12 6 5 15 14 12 7 1 6 -7 24 -2 -2 11 7 -8 7 12 5 -17 13 -3 -1 -3
12 18 26 14 14 2 -20 -20 -20 -20 -20 -10 -20 -20 -20 -20 20 16 -2 -19 4 -7 14 3 -20 -20 -20 -20 -20 -20 -14 6 4 -2 8 8 -20 9 15 8 6 -14 6 -3 4 -20 -20 -9 -0 -16 -2 -6 -20 -20
-20 -10 13 15 18 -14 -10 -18 5 -20 -20 -20 -20 -20 -18 11 -3 18 16 -4 -19 16 15 10 7 -20 -20 -20 -3 -20 1 4 1 8 -7 3 0 11 12 8 16 -20 -20 -13 -20 -20 6 -20 -9 -15 -16 -19 -4 -20
-20 -20 -3 -10 15 14 16 9 2 -20 -20 2 -20 -0 15 -20 16 3 11 -20 -1 12 6 3 4 -10 -20 16 15 -13 -20 -20 1 6 6 10 12 16 14 -14 -20 -20 -20 -20 -20 -20 -20 -20 -20 -20 -20 -20 -20 -17
-20 -20 14 29 11 13 11 8 11 2 2 9 13 14 19 17 18 18 -20 -20 6 -0 19 -7 7 13 -20 19 23 18 15 7 5 13 7 10 18 17 -3 -20 -20 -20 -20 -20 -20 -20 -20 -20 -20 -20 -20 -20 -20 -20
-20 -20 4 20 25 23 34 -2 -20 -19 11 16 17 17 8 -17 -20 -19 17 20 20 15 7 7 -19 8 -15 15 21 -1 1 13 20 8 -6 16 13 -20 -20 -20 -20 -20 -20 -20 -20 -20 -20 -20 -20 -20 -20 -20 -20 -14
12 -20 14 13 25 24 25 -7 -15 12 16 23 21 -18 15 -20 16 21 16 17 -3 14 8 -5 -20 4 -20 -2 9 4 16 17 18 25 16 21 18 -5 -20 -20 -20 -20 -20 -20 -20 -20 -20 -20 -20 -20 -20 -20 -20 -4
1 -11 18 11 22 23 21 14 -5 11 24 9 9 -13 16 13 16 11 13 14 13 2 0 1 6 -11 8 -20 9 -11 -4 6 13 -0 3 20 -4 -20 -20 -20 -20 -20 -20 -20 -20 -20 -20 -20 -20 -20 -20 -20 -20 -10
-7 18 18 21 19 28 14 5 1 -18 14 1 2 -1 13 -14 19 4 8 11 4 -20 2 0 -1 -17 6 4 13 6 7 6 -11 7 10 -19 -18 -20 -20 -20 -20 -20 -20 -20 -20 -20 -20 -20 -20 -20 -20 -20 -3 -8
15 21 17 18 16 13 12 21 -5 11 18 14 8 18 9 5 0 -2 -0 -17 -5 -20 -2 2 -19 -4 10 2 9 7 1 -8 17 6 13 -17 -20 -20 -20 -20 -20 -20 -20 -20 -20 -20 -20 -20 -20 -20 -20 -5 -7 -3
17 15 16 15 17 14 15 12 7 20 18 -3 18 15 -20 8 14 10 -5 -9 -16 -2 2 -1 5 18 10 0 3 9 15 10 16 14 -1 -18 -19 -20 -20 -20 -20 -20 -20 -20 -20 -20 -20 -20 -20 -20 -20 -3 -3 -3
16 19 18 -8 13 11 15 15 35 31 -10 14 18 21 -2 6 3 6 9 10 -18 11 21 21 -8 -1 19 1 20 11 17 15 2 -1 -9 -15 -20 -20 -20 -20 -20 -20 -20 -20 -9 -20 -20 -20 -20 -14 -6 -13 -12 1
-6 20 13 14 14 -19 17 39 23 7 -7 15 15 -2 -18 -2 3 -3 10 5 -20 8 13 8 -3 -5 -3 20 14 -17 10 -4 -5 -2 -20 -20 -20 -19 -4 -6 -20 -20 -4 -1 -2 -4 -4 -18 -20 3 -4 2 -2 0
18 17 9 18 20 36 36 28 2 12 13 1 -10 -6 -3 -20 -2 -3 -4 -2 -2 7 18 11 19 8 2 20 19 -6 -3 -1 -13 -6 -17 -19 -20 -7 -6 0 -4 -3 -1 -7 -5 -10 4 -3 -3 -2 1 4 -2 7
16 19 13 20 10 22 18 5 -7 -10 -20 -19 -10 -6 -2 -3 -20 -15 -11 -5 -5 -20 -20 -20 14 21 -4 -5 -4 -2 0 2 4 4 -6 -8 -3 -4 -3 -1 -5 7 -1 -1 1 0 -1 -1 2 2 1 5 5 6
15 -18 -11 28 16 -19 -13 -4 -18 -20 -8 -5 -1 -4 -2 -2 -4 -1 4 3 -0 11 2 -14 -5 -2 -3 -2 -5 -1 1 -3 -5 6 7 2 0 5 1 -1 -3 -1 2 5 2 -20 -3 1 -2 -1 1 2 6 6
-7 -2 -1 15 2 -4 -20 -3 -20 -20 -20 -15 -2 -5 -0 -5 -1 0 2 -15 5 -19 -17 -2 -0 0 1 3 5 2 -2 -3 -1 -2 -9 9 -4 -2 -1 4 2 0 1 2 4 5 4 1 -0 1 6 6 8 7
16 17 27 13 -0 -3 -15 -13 -13 -8 -2 0 2 -4 3 2 2 -5 -20 -7 -20 -5 -2 3 4 2 1 1 -0 0 -3 -3 -16 -5 -15 -11 1 0 1 1 2 5 3 3 2 3 4 2 -11 4 5 7 6 2
25 15 -3 -20 -20 -8 -2 -8 10 0 -1 1 -5 -12 -4 -1 -9 -20 -20 -9 -2 -1 5 3 -1 -4 -3 -0 -4 -1 -12 -13 -0 -2 0 1 0 1 0 0 1 3 6 1 1 2 2 -19 2 4 5 7 7 6
5 10 1 -11 -3 14 3 12 -4 1 -2 0 -0 -4 -15 -2 -20 -20 -18 -3 1 3 4 1 1 1 -1 -3 1 1 1 -1 -1 -0 0 2 2 1 0 0 1 1 0 1 1 4 3 4 -15 5 5 5 5 7
25 14 4 -7 12 15 2 -1 -0 -1 -2 -0 -20 -3 1 -20 -3 -20 -4 -1 2 6 6 4 1 2 6 1 -0 -1 -19 1 -1 1 1 1 2 2 3 -2 -1 1 2 9 6 5 2 3 3 4 4 4 3 2
17 -5 3 -6 -1 -20 -7 -20 -20 -20 -20 -3 -9 -6 -14 -14 -20 -20 -20 2 6 6 7 6 4 1 -0 -0 2 1 0 -1 -3 -1 -0 -2 -1 4 6 4 5 5 1 8 8 6 4 2 3 2 3 -12 -20 4
-20 -20 -20 -20 -20 -20 -13 -12 -20 -18 -20 -20 -3 -1 -20 -20 -20 -11 -4 2 1 3 -0 -2 -3 -2 -0 1 -2 2 1 -2 -10 -6 -3 -3 -2 -3 -0 2 2 2 2 5 7 10 10 5 5 3 2 5 4 3
-20 -20 -20 -20 -20 -20 -20 -20 -20 -20 -6 -20 -13 -20 -20 -20 -20 3 1 1 0 -0 -1 -2 -2 -3 1 -1 1 4 1 -0 -1 -0 -1 -3 -2 1 -1 3 5 -2 3 4 3 7 7 9 6 5 3 4 -1 -0
-13 -20 -20 -20 -20 -20 -20 -20 -20 -19 -20 -16 -13 -16 -7 -14 -0 1 4 1 2 1 2 1 2 1 1 -1 -1 -1 0 1 4 -1 -1 4 6 3 0 1 -0 4 4 9 -16 -3 -0 5 5 7 5 6 5 5
-20 -20 -20 -20 -20 -20 -3 -4 -2 -2 -20 -20 -20 -20 -4 1 -1 -8 4 1 3 5 1 1 1 1 2 1 1 -0 -1 -1 -12 -3 5 3 -3 -1 1 2 2 2 2 7 6 5 -16 6 -10 3 4 4 6 5
-20 -20 -20 -20 -10 0 1 1 -0 -0 -3 -6 -8 -10 -7 1 2 -3 -1 -2 -1 -0 2 1 -2 -0 -0 -2 1 1 -2 -1 -20 -20 -20 -7 -3 -1 -0 -2 1 1 3 4 5 3 2 3 4 2 1 -1 -14 0
-10 -20 -20 -20 -11 2 -2 3 1 -1 1 -1 -0 -2 -6 1 -3 0 -3 -0 1 1 -19 -10 -19 -19 -19 -20 -20 -20 -20 -20 -20 -20 -20 -20 -5 -3 -1 -0 1 2 1 2 3 3 1 1 1 2 1 -1 -3 -2
-7 -9 -20 -7 -7 -4 -5 1 -20 -9 -2 -6 -2 -3 -6 -18 -13 -8 -17 -6 -2 -0 -20 -13 -20 -20 -20 -20 -20 -20 -20 -20 -20 -20 -20 -20 -20 -20 -9 -1 0 -1 -3 -0 0 1 -1 -3 -3 -4 -15 -20 -20 -20

GFSWCAN_prec_radar_126.txt.gz
Reflectivity
12 4 -20 12 -9 -20 -20 -20 -20 -12 -20 -20 -20 -20 -20 -20 -20 -20 -9 -20 -20 -20 -18 -20 -20 -20 -20 -20 -3 -8 -12 -13 -20 -17 10 7 16 -7 12 -20 10 12 6 10 8 -10 7 12 -20 -1 16 20 7 9
15 6 -20 -20 -20 -10 -20 -20 -20 -20 -20 -20 -20 -20 -20 -20 -20 -20 2 -20 -20 -10 -15 -20 -20 -20 -20 -20 -20 -20 -17 -20 -20 -5 6 1 5 2 -4 9 14 3 14 21 17 18 31 29 30 32 31 23 23 27
15 10 1 2 9 -17 4 -1 -6 2 -17 -20 -11 -20 -20 -20 -20 -20 -5 -10 -9 -0 -20 -20 -20 -20 -20 -20 -20 -20 -8 -20 2 -20 4 5 7 -17 6 9 -20 -4 24 2 13 10 5 36 22 25 26 25 25 21
28 15 13 8 -10 -7 -7 -1 8 15 14 2 -20 -20 -20 -20 -20 -20 4 -5 -19 -11 -10 2 -20 -20 -20 -20 -20 -20 -20 -20 -20 -20 0 6 6 -18 3 -20 -4 9 18 -14 -1 -8 4 10 21 11 22 25 12 -5
11 11 20 1 -8 14 7 10 8 9 -20 -20 -20 -20 -20 -20 -20 -20 19 19 4 6 -0 -12 -19 -20 -20 -20 -20 -20 -20 -20 -20 6 12 6 -15 -6 -20 -20 30 -16 -13 -1 3 12 8 10 7 -20 -20 -20 -20 -20
10 27 33 26 30 9 11 2 -6 -20 -20 -20 -20 -20 -20 -20 -20 -15 8 -7 -3 -20 10 -11 -13 -20 -20 -20 -20 -20 -20 -20 2 10 8 -13 -20 -4 14 3 -8 -20 -20 -20 -3 -2 16 -17 -18 -20 -20 -20 -19 -20
13 28 32 36 28 8 7 -20 -8 12 -20 -20 -20 -4 -20 -20 12 13 12 -5 -20 -2 7 0 -13 -20 -20 -20 -19 -16 -14 3 8 13 2 -20 -20 2 6 -2 22 -20 -20 -20 -20 -20 -7 -19 -20 -20 -20 -20 -18 -20
5 -2 32 31 14 -15 -6 9 -4 2 -4 4 -13 -4 -20 -1 15 15 -6 -20 -20 -8 10 6 -19 -9 -20 -6 8 -20 3 -13 -18 -2 -4 3 8 3 11 -13 -20 -20 -20 -20 -20 -20 -20 -20 -20 -20 -20 -20 -20 -20
-20 8 11 22 13 15 7 -7 2 10 5 -20 -20 14 -12 5 16 18 -20 -20 -18 -11 10 4 -5 14 -20 6 28 33 -12 6 -8 3 -5 4 2 19 2 -20 -20 -20 -20 -20 -20 -20 -20 -20 -20 -20 -20 -20 -20 -20
-4 -20 5 14 19 12 -17 16 -11 11 -19 13 13 13 3 -9 -20 -20 -9 14 -13 4 -14 -0 -20 -1 -13 18 24 -5 -1 1 22 -2 -8 11 11 -20 -20 -20 -20 -20 -20 -20 -20 -20 -20 -20 -20 -20 -20 -20 -20 -13
-20 -20 -20 -17 8 12 15 -15 -11 1 11 -3 13 2 14 -20 -17 16 -1 10 5 7 -0 -12 -20 -20 -20 1 13 17 -3 18 -4 21 9 19 12 -20 -20 -20 -20 -20 -20 -20 -20 -20 -20 -20 -20 -20 -20 -20 -20 -16
-20 -20 -12 -4 17 19 10 1 -20 -1 -4 -12 22 -20 14 -9 -0 -4 15 -4 10 -7 -18 -20 -1 -20 5 -20 6 15 -4 -11 -0 -10 16 11 -4 -20 -20 -20 -20 -20 -20 -20 -20 -20 -20 -20 -20 -20 -20 -20 -20 -3
0 -9 -20 17 31 30 31 16 1 -17 -20 26 7 -16 -15 -6 11 6 7 11 6 -20 5 -20 -20 3 -15 -4 9 -8 -20 2 -10 19 13 -19 -20 -20 -20 -20 -20 -20 -20 -20 -20 -20 -20 -20 -20 -20 -20 -20 -2 -20
-3 -20 -20 16 28 31 24 9 14 17 17 18 -7 3 0 -14 -20 -6 -20 -18 -20 -1 16 -19 -4 3 -11 9 16 -19 -3 3 8 10 11 -20 -20 -20 -20 -20 -20 -20 -20 -20 -20 -20 -20 -20 -20 -20 -20 -8 -5 -18
14 -3 12 14 21 30 20 2 13 17 24 4 -20 16 -20 -20 14 9 21 16 -3 -4 18 8 6 -3 18 10 3 5 14 4 6 -2 1 -20 -20 -20 -20 -20 -20 -20 -20 -20 -20 -20 -20 -20 -20 -20 -15 -20 -20 -7
18 17 24 28 34 22 11 9 20 18 23 -17 -11 -2 -11 22 9 -20 -20 -11 -9 22 20 19 16 3 19 -3 10 -14 11 5 7 -4 -20 -20 -20 -20 -20 -20 -20 -20 -20 -20 -20 -5 -18 -20 -20 -20 -13 -16 -20 -3
27 37 23 14 36 33 21 25 23 32 6 -20 4 -1 15 9 -2 -3 10 6 -20 15 19 12 12 -19 18 20 15 19 14 1 -7 -5 -19 -20 -4 -20 -20 -20 -20 -19 -19 -20 -8 -19 -19 -17 -20 5 -18 9 -20 7
20 6 17 25 33 28 28 28 20 11 7 -20 -2 17 -20 -10 -4 -17 -16 -10 -5 -17 6 13 19 17 17 19 20 2 -11 -7 -9 -17 -7 -15 -20 -20 -20 -8 -10 -17 -7 -1 -15 -3 6 -19 -1 -1 1 3 2 -16
0 14 14 20 19 16 13 27 27 -12 2 -4 -20 -20 -20 -13 -12 -18 -13 -5 -12 1 -7 14 14 14 6 -14 -11 -12 2 2 -1 2 -20 -20 -20 -20 -12 -1 -20 8 -10 -20 -19 -8 0 5 -1 -8 -6 -2 -5 11
-17 10 -11 -18 -14 31 20 8 -12 -20 -13 -7 -16 -20 -15 -1 -20 -2 -1 -4 -3 9 16 13 -12 -6 -5 -18 -4 -14 -20 -13 -1 -0 1 3 -4 2 -20 -17 -14 -17 -2 -1 -1 -20 -13 0 -20 -3 -2 8 5 8
10 14 -1 21 20 -0 -7 -20 -20 -20 -20 -13 -2 -11 6 11 -1 6 -4 -17 12 1 -6 -4 -5 -5 -0 0 1 -20 -15 -14 -5 -20 -10 8 -19 -16 2 4 3 4 4 2 7 4 3 -2 -20 2 8 1 -5 10
19 24 30 -4 -20 -20 -15 -20 -13 -20 -14 -12 -6 -5 5 3 4 5 -20 1 -13 -20 -2 -0 -9 -20 -15 -1 -13 -20 -16 -17 -20 -9 -15 -14 -8 -7 -1 1 5 7 4 0 4 7 3 -13 -20 7 -2 -2 2 -18
7 16 -20 -20 -20 -15 -6 -20 -3 -7 -1 4 -3 -8 0 -3 -16 -18 1 -20 -20 -13 6 -4 -12 -13 -20 -7 -13 -15 -20 -20 -5 -8 0 -1 -10 2 3 -2 1 -12 6 -2 1 1 3 -20 -1 -20 7 8 10 11
-20 -19 -14 -18 -11 0 -4 6 2 2 -11 1 4 4 -20 -3 -20 -20 4 -3 1 -4 -2 -15 -5 1 -1 -1 5 2 -2 -7 -9 -7 -13 5 3 -1 -0 2 3 1 -2 5 4 5 3 8 -17 8 5 8 1 9
-8 -20 -20 -17 4 -7 7 -1 2 0 3 5 -10 -18 -12 -20 -5 0 -1 -6 -5 8 3 7 10 9 13 -3 -19 -19 -20 4 5 -8 -12 -15 7 8 -2 -5 -20 -17 -7 -0 8 12 -11 -0 9 1 4 -15 -2 8
2 -20 -15 -2 -1 -3 -9 4 1 -2 -20 -1 -5 -17 -14 -3 -2 -3 -20 -0 4 4 1 7 6 -1 4 4 2 4 -5 -20 -4 -10 -20 -20 -20 -10 -0 5 7 -5 -16 6 5 8 14 -20 3 -5 10 -10 -20 -17
-20 -14 -20 -20 -20 -20 -20 -20 -20 -20 -4 -18 -3 -4 -2 -20 -4 -20 -3 2 2 -1 -15 -14 3 4 -20 -17 -14 -1 0 -17 -20 -17 -20 -15 -13 -11 -4 -6 -10 -10 -17 8 2 8 8 10 10 4 6 9 5 1
19 4 -19 -20 -20 -20 -20 -15 -12 -6 -3 -20 -12 -6 -6 -10 -20 -4 -3 3 -20 -20 -20 -14 -10 -3 -1 1 3 5 0 -18 -20 -20 -20 -20 -20 -5 -3 4 3 -5 -19 -0 -18 1 -16 5 8 11 6 5 -20 0
-13 -19 -20 -20 -20 -20 -20 -20 -20 -20 -20 -20 -9 -20 -20 -16 3 -1 -3 -5 -6 -4 1 0 0 -7 -3 -13 -17 -5 -1 -6 5 5 -18 12 -0 -0 -2 1 2 4 -5 6 -14 -20 -20 -20 -20 -20 -20 4 3 8
-8 -20 -20 -20 -20 -20 -8 -11 -18 -11 -20 -20 -20 -20 -15 -6 -20 5 2 4 6 10 9 4 3 4 1 0 -3 -2 -3 -10 -20 -20 -12 -18 -6 -7 -4 -4 -3 -1 -1 2 4 2 -15 -20 -7 -2 6 8 -1 -1
-15 -20 -20 -20 -15 -3 -3 -2 -2 -3 -2 -4 -13 -20 -19 -1 -1 -16 11 -5 -17 -11 -6 1 1 -0 -2 1 -2 -1 -16 -11 -20 -20 -20 -15 -20 -5 -9 -13 -2 -5 1 -0 1 -2 -20 2 4 4 -20 -20 -20 -8
3 -19 -20 -20 -14 -0 -2 4 6 -2 -1 -2 -4 -5 1 0 -5 -5 -7 -0 -0 2 -18 1 -0 -18 -20 -20 -20 -20 -20 -20 -20 -20 -20 -20 -19 -20 -4 -3 -0 -2 -8 -3 1 2 -8 -20 -7 -20 -19 -19 -20 -20
3 -3 -20 -20 -5 -5 -7 2 -3 1 1 0 -2 -7 -8 -6 -5 -6 -5 -13 5 -18 -16 -15 -20 -20 -20 -20 -20 -20 -20 -20 -20 -20 -20 -20 -20 -20 -20 -20 -20 -7 -20 -12 -6 -4 -14 -20 -20 -20 -20 -20 -20 -20

GFSWCAN_prec_radar_132.txt.gz
Reflectivity
26 15 18 -20 -11 -20 13 -20 -20 -20 -20 -20 -20 -20 -20 -20 -20 -20 -20 -20 -20 -20 -20 -20 -20 -20 -20 -20 -20 -20 -20 -20 -20 -20 -20 -20 -20 -20 -20 -20 -20 -20 -20 -20 -20 -20 -20 -20 -20 -5 5 12 16 21
14 15 10 -20 -20 -20 -15 -20 -20 -20 -20 -20 -20 -20 -20 -20 -20 -20 -20 -20 -20 -20 -20 -20 -20 -20 -20 -20 -20 -20 -20 -20 -20 -20 -20 -20 -20 -20 -20 -20 -20 -20 -20 -20 -11 -6 5 12 20 23 30 26 12 17
12 11 6 -20 -20 5 -20 -20 -17 3 -20 -20 -20 -20 -20 -20 -20 -20 -20 -20 -20 -20 -20 -20 -20 -20 -20 -20 -20 -20 -20 -20 -20 -20 -20 -20 -20 -20 -20 -20 -20 -20 -20 -20 -10 -10 -6 -1 17 -2 16 24 23 -20
10 3 -4 13 8 -9 -20 14 -8 -20 -10 -20 -20 -20 -20 -20 -20 -20 -20 -20 -20 -20 -20 -20 -20 -20 -20 -20 -20 -20 -20 -20 -20 -20 -20 -20 -20 -20 -20 -20 -20 -20 -15 -20 -20 -11 4 11 -7 -4 -8 -9 -20 -20
11 -6 6 6 -20 -20 -18 2 -20 -20 -20 -20 -20 -20 -20 -20 -20 -20 -20 -20 -20 -20 -20 -20 -20 -20 -20 -20 -20 -20 -20 -20 -20 -20 -20 -20 -20 -20 -20 -20 -20 -20 -20 -20 -20 -20 -11 -17 -20 -9 -20 -20 -20 -20
16 8 13 -20 -0 -20 -20 -20 -20 -20 -20 -20 -20 -20 -20 -20 -20 -20 -20 -20 -20 -20 -20 -20 -20 -20 -20 -20 -20 -20 -20 -20 -20 -20 -20 -20 -20 -20 -20 -20 -20 -20 -20 -20 -20 -20 -20 -20 -20 -20 -20 -20 -20 -20
25 12 16 -20 -20 -20 -20 -20 -20 -20 0 -20 -20 -20 -20 -20 -20 -20 -20 -20 -20 -20 -20 -20 -20 -20 -20 -20 -20 -20 -20 -20 -20 -20 -20 -20 -20 -20 -20 -20 -20 -20 -20 -20 -20 -20 -20 -20 -20 -20 -20 -20 -20 -20
24 15 -1 -20 -20 -20 -19 -6 8 11 -20 -3 -7 -20 -20 -20 -20 -20 -20 -20 -20 -20 -20 -20 -20 -20 -20 -20 -20 -20 -20 -20 -20 -20 -20 -20 -20 -20 -20 -20 -20 -20 -20 -20 -20 -20 -20 -20 -20 -20 -20 -20 -20 -20
29 32 14 13 3 -20 -20 8 15 5 -14 -16 -20 -20 -20 -20 -20 -20 -20 -20 -20 -20 -20 -20 -20 -20 -20 -20 -20 -20 -20 -20 -20 -20 -20 -20 -20 10 -20 -20 -20 -20 -20 -20 -20 -20 -20 -20 -20 -20 -20 -20 -20 -20
1 13 31 17 8 20 25 16 11 -20 -20 -20 -20 -20 -20 -20 -20 -20 -20 -20 -20 -20 -20 -20 -20 -20 -20 -20 4 -20 -20 -20 -20 -20 -20 -20 -20 -20 -20 -20 -20 -20 -20 -20 -20 -20 -20 -20 -20 -20 -20 -20 -20 -20
2 -19 18 30 22 24 20 12 -19 -20 -20 -20 -20 9 -20 -20 -20 -20 -20 -20 -20 -20 -20 -20 -20 -20 -20 -20 -20 -20 -20 -20 -20 -20 -19 -20 -20 -20 -20 -20 -20 -20 -20 -20 -20 -20 -20 -20 -20 -20 -20 -20 -20 -20
6 -14 13 26 36 21 13 -20 -20 -20 -20 -20 -20 -20 -20 -20 -20 -20 -20 -20 -20 -20 -20 -20 -20 -20 -20 -20 -20 -20 -20 -20 -20 -17 -14 15 16 -3 -15 2 -20 -20 -20 -20 -20 -20 -20 -20 -20 -20 -20 -20 -20 -20
22 8 33 34 25 13 3 9 -20 -20 -20 -20 -20 -20 -20 -20 -20 -20 -20 -20 -20 -20 -20 -20 -20 -20 -20 -20 -20 -20 -20 -20 -20 -12 -17 -20 -20 -20 -20 -20 -20 -20 -20 -20 -20 -20 -20 -20 -20 -20 -20 -20 -20 -20
13 13 33 31 24 13 -2 8 -20 -13 -20 -20 -20 -20 -20 -20 -20 -20 -20 -20 -20 -20 -20 -20 -20 -20 -20 -20 -20 -20 -20 -20 -20 -20 -20 -20 -20 -20 -20 -20 -20 -20 -20 -20 -20 -20 -20 -20 -20 -20 -20 -20 -20 -20
2 -2 29 34 24 8 -12 -20 -20 -20 -20 -20 -20 -20 -20 -20 -20 -20 -20 -20 -20 -20 -20 -20 -20 -20 -20 -20 -20 -20 -20 -20 -20 -20 10 -20 -20 -20 -20 -20 -20 -20 -20 -20 -20 -20 -20 -20 -20 -20 -20 -20 -20 -20
-11 -2 13 36 29 17 19 3 -16 -20 -20 -20 -20 -20 -20 -20 -20 -20 -20 -20 -20 -0 -3 -20 -20 -20 -20 -20 -9 -20 -20 -20 -20 12 11 -0 -20 -20 -20 -20 -20 -20 -20 -20 -20 -20 -20 -20 -20 -20 -20 -20 -20 -20
-7 -20 -20 -13 26 33 27 -18 6 -20 -20 -20 -20 -20 -20 -20 -19 -20 -20 -20 -20 13 -15 -20 -20 -20 -20 -20 -20 -20 -20 -20 -8 -3 18 -4 -20 -20 -20 -20 -20 -20 -20 -20 -20 -20 -20 -20 -20 -20 -20 -20 -20 -20
-20 -20 -6 11 34 33 33 31 8 -20 -20 -20 -20 -20 -20 -20 -20 -20 -20 -20 -20 -20 -20 3 8 -9 -20 -20 -14 -20 -20 8 22 18 -14 -20 -20 -20 -20 -20 -20 -20 -20 -20 -20 -20 -20 -20 -20 -20 -20 -20 -20 -20
-20 -20 12 32 37 30 22 20 -19 -20 -20 -20 -20 -20 -20 -20 -20 -20 -20 -20 -20 -20 -20 -20 -13 -20 -20 -20 -20 -20 -20 -20 -16 -12 -20 -20 -20 -20 -20 -20 -20 -20 -20 -20 -20 -20 -20 -20 -20 -20 -20 -20 -20 -20
-11 -1 21 28 27 18 3 -18 -20 -20 -20 -20 -20 -20 -20 -20 -20 -20 -20 -20 -20 -20 -20 -20 -20 -20 -20 -20 -20 -20 -20 -20 -20 -20 -20 -20 -20 -20 -20 -20 -20 -20 -20 -20 -20 -20 -20 -20 -20 -20 -20 -20 -20 -20
21 30 35 31 5 -3 -16 -20 -20 -20 -20 -20 -20 -20 -20 -20 -20 -20 -20 -20 -20 -20 -20 -20 -20 -20 -20 -20 -20 -20 -20 -20 -20 -20 -20 -20 -20 -20 -20 -20 -20 -20 -20 -20 -20 -20 -20 -20 -20 -20 -20 -20 -20 -20
35 30 31 10 12 -16 -20 -20 -20 -20 -20 -20 -20 -20 -20 -20 -20 -20 -20 -20 -20 -20 -20 -20 -20 -20 -20 -20 -20 -20 -20 -20 -20 -20 -20 -20 -20 -20 -20 -20 -20 -20 -20 -20 -20 -20 -20 -20 -20 -20 -20 -20 -20 -20
24 19 -7 -4 -14 -20 -20 -20 -20 -20 -20 -20 -20 -20 -20 -20 -20 -20 -20 -20 -20 -20 -20 -20 -20 -20 -20 -20 -20 -20 -20 -20 -20 -20 -20 -20 -20 -20 -20 -20 -20 -20 -20 -20 -20 -20 -20 -20 -20 -20 -20 -20 -20 -20
-4 10 12 16 2 -20 -20 -20 -20 -20 -20 -17 -20 -20 -20 -20 -20 -20 -20 -20 -20 -20 -20 -20 -20 -20 -20 -20 -20 -18 -18 -20 -20 -20 -20 -20 -20 -20 -20 -20 -20 -20 -20 -19 -20 -20 -20 -20 -20 -20 -20 -20 -20 -20
-11 1 -7 -20 -20 -20 -20 -20 -20 -20 -20 -20 -20 -20 -20 -20 -20 -20 -20 -20 -20 -20 -20 -20 -20 -20 -20 -20 -20 -20 -20 -20 -20 -20 -20 -20 -20 -20 -20 -20 -20 -20 -20 -20 -20 -20 -20 -20 -20 -20 -20 -20 -20 -20
-20 -20 -20 -20 -20 -20 -20 -20 -20 -20 -20 -20 -20 -20 -20 -20 -20 -20 -20 -20 -20 -20 -20 -20 -20 -20 -20 -20 -20 -20 -20 -20 -20 -20 -20 -20 -20 -20 -20 -20 -20 -20 -20 -20 -20 -20 -20 -20 -20 -20 -20 -20 -20 -20
-20 -20 -20 -20 -20 -20 -20 -20 -20 -20 -20 -20 -20 -20 -20 -20 -20 -20 -20 -20 -20 -20 -20 -20 -20 -20 -20 -20 -20 -20 -20 -20 -20 -20 -20 -20 -20 -20 -20 -20 -20 -20 -20 -20 -20 -20 -20 -20 -20 -20 -20 -20 -20 -20
-20 -20 -20 -20 -20 -20 -20 -20 -20 -19 -18 -20 -20 -20 -20 -20 -20 -20 -20 -20 -20 -20 -20 -20 -20 -20 -20 -20 -20 -20 -20 -20 -20 -20 -20 -20 -20 -20 -20 -20 -20 -20 -20 -20 -20 -20 -20 -20 -20 -20 -20 -20 -20 -20
-20 -20 -20 -20 -20 -20 -20 -20 -20 -20 -20 -20 -20 -20 -20 -20 -20 -20 -20 -20 -20 -20 -20 -20 -20 -20 -20 -20 -20 -20 -20 -20 -20 -20 -20 -20 -20 -20 -20 -20 -20 -20 -20 -20 -20 -20 -18 -20 -20 -20 -20 -20 -20 -20
-20 -20 -20 -20 -20 -20 -20 -20 -20 -20 -20 -20 -20 -20 -20 -20 -20 -20 -20 -20 -20 -20 -20 -20 -20 -20 -20 -20 -20 -20 -20 -20 -20 -20 -20 -20 -20 -20 -20 -20 -20 -20 -20 -20 -20 -20 -20 -20 -20 -20 -20 -20 -20 -20
-20 -20 -20 -20 -20 -20 -20 -20 -20 -20 -20 -20 -20 -20 -20 -20 -20 -20 -20 -20 -20 -20 -20 -20 -20 -20 -20 -20 -20 -20 -20 -20 -20 -20 -20 -20 -20 -20 -20 -20 -20 -20 -20 -20 -20 -20 -20 -20 -20 -20 -20 -20 -20 -20
-20 -20 -20 -20 -20 -20 -20 -20 -20 -20 -20 -20 -20 -20 -20 -20 -20 -20 -20 -20 -20 -20 -20 -20 -20 -20 -20 -20 -20 -20 -20 -20 -20 -20 -20 -20 -20 -20 -20 -20 -20 -20 -20 -20 -20 -20 -20 -20 -20 -20 -20 -20 -20 -20
-20 -20 -20 -20 -20 -20 -20 -20 -20 -20 -20 -20 -20 -20 -20 -20 -20 -20 -20 -20 -20 -20 -20 -20 -20 -20 -20 -20 -20 -20 -20 -20 -20 -20 -20 -20 -20 -20 -20 -20 -20 -20 -20 -20 -20 -20 -20 -20 -20 -20 -20 -20 -20 -20

GFSWCAN_prec_radar_135.txt.gz
Reflectivity
32 28 23 16 -0 -18 -20 -20 -20 -20 -20 -20 -8 -3 -1 6 -1 -19 -20 -20 -20 -20 -20 -20 -20 -20 -20 -20 -20 -20 -20 -20 -20 -20 -20 -20 -20 -20 -20 -20 -20 -20 -20 -20 -20 -20 -20 -20 -20 -20 -6 2 19 19
27 26 22 12 1 14 15 -18 -20 -20 -20 -20 -20 -20 -20 -20 -20 -20 -20 -20 -20 -20 -20 -20 -20 -20 -20 -20 -20 -20 -20 -20 -20 -20 -20 -20 -20 -20 -20 -20 -20 -20 -20 -20 -20 -20 -20 3 -4 5 14 18 23 3
24 20 16 3 -2 -20 -20 -20 -20 -20 -20 -20 -20 -20 -20 -20 -20 -20 -20 -20 -20 -20 -20 -20 -20 -20 -20 -20 -20 -20 -20 -20 -20 -20 -20 -20 -20 -20 -20 -20 -20 -20 -20 -20 -19 -20 -20 -20 5 -11 -20 -9 -5 -20
24 18 8 -10 -9 -20 -20 -20 -20 -20 -20 -20 -20 -20 -20 -20 -20 -20 -20 -20 -20 -20 -20 -20 -20 -20 -20 -20 -20 -20 -20 -20 -20 -20 -20 -20 -20 -20 -20 -20 -20 -20 -20 -20 -20 -20 -9 11 -20 -20 -20 -20 -20 -20
14 11 -17 -20 -4 -20 -20 13 -20 -20 -20 -20 -20 -20 -20 -20 -20 -20 -20 -20 -20 -20 -20 -20 -20 -20 -20 -20 -20 -20 -20 -20 -20 -20 -20 -20 -20 -20 -20 -20 -20 -20 -20 -20 -20 -20 -20 -17 -20 -20 -20 -20 -20 -20
12 12 9 -15 -20 1 -20 -20 -20 -20 -20 -20 -20 -20 -20 -20 -20 -20 -20 -20 -20 -20 -20 -20 -20 -20 -20 -20 -20 -20 -20 -20 -20 -20 -20 -20 -20 -20 -20 -20 -20 -20 -20 -20 -20 -20 -20 -20 -20 -20 -20 -20 -20 -20
-2 2 -6 -19 -20 11 -20 -20 -20 -20 -20 -20 -20 -20 -20 -20 -20 -20 -20 -20 -20 -20 -20 -20 -20 -20 -20 -20 -20 -20 -20 -20 -20 -20 -20 -20 -20 -20 -20 -20 -20 -20 -20 -20 -20 -20 -20 -20 -20 -20 -20 -20 -20 -20
-12 7 -20 -20 -12 18 -20 -20 -20 -20 -20 -20 -20 -20 -20 -20 -20 -20 -20 -20 -20 -20 -20 -20 -20 -20 -20 -20 -20 -20 -20 -20 -20 -20 -20 -20 -20 -20 -20 -20 -20 -20 -20 -20 -20 -20 -20 -20 -20 -20 -20 -20 -20 -20
-20 -20 -20 0 6 -2 8 10 -10 -20 -20 -20 -20 -20 -20 -20 -20 -20 -20 -20 -20 -20 -20 -20 -20 -20 -20 -20 -20 -20 -20 -20 -20 -20 -20 -20 -20 -9 -20 -20 -20 -20 -20 -20 -20 -20 -20 -20 -20 -20 -20 -20 -20 -20
-3 3 -20 -2 11 9 14 15 -20 -20 -20 -20 -20 -20 -20 -20 -20 -20 -20 -20 -20 -20 -20 -20 -20 -20 -20 -20 -20 -20 -20 -20 -2 -20 -20 -20 -20 -20 -20 -20 -20 -20 -20 -20 -20 -20 -20 -20 -20 -20 -20 -20 -20 -20
15 17 3 -6 13 12 0 -20 -20 -20 -20 -6 -20 -2 -20 -20 -20 -20 -20 -20 -20 -20 -20 -20 -20 -20 -20 -20 -20 -20 -20 -20 -20 -20 -20 -20 -3 -20 -20 -20 -20 -20 -20 -20 -20 -20 -20 -20 -20 -20 -20 -20 -20 -20
30 18 18 -6 9 13 11 -20 -20 -20 -20 -20 -20 -20 -20 -20 -20 -20 -20 -20 -20 -20 -20 -20 -20 -20 -20 -20 -20 -20 -20 -20 -13 -17 5 -20 -19 -3 -19 -20 -20 -20 -20 -20 -20 -20 -20 -20 -20 -20 -20 -20 -20 -20
5 25 23 17 14 18 0 0 5 -20 -20 -20 -20 -20 -20 -20 -20 -20 -20 -20 -20 -20 -20 -20 -20 -20 -20 -20 -20 -20 -20 -20 -20 -19 -20 -20 -20 -20 -20 -20 -20 -20 -20 -20 -20 -20 -20 -20 -20 -20 -20 -20 -20 -20
5 22 25 32 12 2 0 -20 -20 -20 -20 -20 -20 -20 -20 -20 -20 -20 -20 -20 -20 -20 -20 -20 -20 -20 -20 -20 -20 -20 -20 -20 -20 -20 -20 -20 -20 -20 -20 -20 -20 -20 -20 -20 -20 -20 -20 -20 -20 -20 -20 -20 -20 -20
21 22 25 34 7 16 -10 -20 -20 -20 -20 -20 -20 -20 -20 -20 -20 -20 -20 -20 -20 -20 -20 -20 -20 -20 -20 -20 -20 -20 -20 -13 -20 -20 -20 -8 -19 -20 -20 -20 -20 -20 -20 -20 -20 -20 -20 -20 -20 -20 -20 -20 -20 -20
31 35 36 33 6 17 -20 -20 -20 -20 -20 -20 -20 -20 -20 -20 -20 -20 -20 -20 -20 -20 -20 -20 -20 -20 -20 -20 -18 -20 -20 -20 -20 -20 -20 4 17 -10 -20 -20 -20 -20 -20 -20 -20 -20 -20 -20 -20 -20 -20 -20 -20 -20
-5 30 31 33 27 6 -20 -20 -20 -20 -20 -20 -20 -20 -20 -20 -20 -20 -20 -20 -20 -20 -20 -20 -20 -20 -20 -20 -19 -20 -20 -20 -20 -20 -5 3 4 -20 -20 -20 -20 -20 -20 -20 -20 -20 -20 -20 -20 -20 -20 -20 -20 -20
-4 29 35 35 13 -14 -8 -15 -20 -20 -20 -20 -20 -20 -20 -20 -20 -20 -20 -20 -20 -20 -20 -14 11 -20 -20 -20 -20 -20 -20 -20 -20 -20 -8 2 -20 -20 -20 -20 -20 -20 -20 -20 -20 -20 -20 -20 -20 -20 -20 -20 -20 -20
5 27 38 28 -14 10 3 -9 -20 -20 -20 -20 -20 -20 -20 -20 -20 -20 -20 -20 -20 -20 -20 -20 -20 -20 -20 -20 -20 -20 -20 -20 -20 -20 -20 -20 -20 -20 -20 -20 -20 -20 -20 -20 -20 -20 -20 -20 -20 -20 -20 -20 -20 -20
7 10 21 32 28 9 -20 -19 -20 -20 -20 -20 -20 -20 -20 -20 -20 -20 -20 -20 -20 -20 -20 -20 -20 -20 -20 -20 -20 -20 -20 -20 -20 -20 -20 -20 -20 -20 -20 -20 -20 -20 -20 -20 -20 -20 -20 -20 -20 -20 -20 -20 -20 -20
6 6 25 36 34 25 -20 -20 -20 -20 -20 -20 -20 -20 -20 -20 -20 -20 -20 -20 -20 -20 -20 -20 -20 -20 -20 -20 -20 -20 -20 -20 -20 -20 -20 -20 -20 -20 -20 -20 -20 -20 -20 -20 -20 -20 -20 -20 -20 -20 -20 -20 -20 -20
6 25 37 30 9 4 -7 -20 -20 -20 -20 -20 -20 -20 -20 -20 -20 -20 -20 -20 -20 -20 -20 -20 -20 -20 -20 -20 -20 -20 -20 -20 -20 -20 -20 -20 -20 -20 -20 -20 -20 -20 -20 -20 -20 -20 -20 -20 -20 -20 -20 -20 -20 -20
17 30 22 -8 -2 5 2 -20 -20 -20 -20 -20 -20 -20 -20 -20 -20 -20 -20 -20 -20 -20 -20 -20 -20 -20 -20 -20 -20 -20 -20 -20 -20 -20 -20 -20 -20 -20 -20 -20 -20 -20 -20 -20 -20 -20 -20 -20 -20 -20 -20 -20 -20 -20
30 12 15 10 -11 -20 -20 -20 -20 -20 -20 -20 -20 -20 -20 -20 -20 -20 -20 -20 -20 -20 -20 -20 -20 -20 -20 -20 -20 -20 -20 -20 -20 -20 -20 -20 -20 -20 -20 -20 -20 -20 -20 -20 -20 -20 -20 -20 -20 -20 -20 -20 -20 -20
21 12 -0 -12 -20 -20 -20 -20 -20 -20 -20 -20 -20 -20 -20 -20 -20 -20 -20 -20 -20 -20 -20 -20 -20 -20 -20 -20 -20 -20 -20 -20 -20 -20 -20 -20 -20 -20 -20 -20 -20 -20 -20 -20 -20 -20 -20 -20 -20 -20 -20 -20 -20 -20
-9 -20 -20 -20 -20 -20 -20 -20 -20 -20 -20 -20 -20 -20 -20 -20 -20 -20 -20 -20 -20 -20 -20 -20 -20 -20 -20 -20 -20 -20 -20 -20 -20 -20 -20 -20 -20 -20 -20 -20 -20 -20 -20 -20 -20 -20 -20 -20 -20 -20 -20 -20 -20 -20
-20 -20 -20 -20 -20 -20 -20 -20 -20 -20 -20 -20 -20 -20 -20 -20 -20 -20 -20 -20 -20 -20 -20 -20 -20 -20 -20 -20 -20 -20 -20 -20 -20 -20 -20 -20 -20 -20 -20 -20 -20 -20 -20 -20 -20 -20 -20 -20 -20 -20 -20 -20 -20 -20
-20 -20 -20 -20 -20 -20 -20 -20 -20 -20 -20 -20 -20 -16 -20 -20 -20 -19 -20 -20 -20 -20 -20 -20 -20 -20 -20 -20 -20 -20 -20 -20 -20 -20 -20 -20 -20 -20 -20 -20 -20 -20 -20 -20 -20 -20 -20 -20 -20 -20 -20 -20 -20 -20
-20 -20 -20 -20 -20 -20 -20 -20 -20 -20 -20 -20 -20 -20 -20 -20 -20 -20 -20 -20 -20 -20 -20 -20 -20 -20 -20 -20 -20 -20 -20 -20 -20 -20 -20 -20 -20 -20 -20 -20 -20 -20 -20 -20 -20 -20 -20 -20 -20 -20 -20 -20 -20 -20
-20 -20 -20 -20 -20 -20 -20 -20 -19 -17 -20 -20 -20 -20 -20 -20 -20 -20 -20 -20 -20 -20 -20 -20 -20 -20 -20 -20 -20 -20 -20 -20 -20 -20 -20 -20 -20 -20 -20 -20 -20 -20 -20 -20 -20 -20 -20 -20 -20 -20 -20 -20 -20 -20
-20 -20 -20 -20 -20 -20 -20 -20 -20 -20 -20 -20 -20 -20 -20 -20 -20 -20 -20 -20 -20 -20 -20 -20 -20 -20 -20 -20 -20 -20 -20 -20 -20 -20 -20 -20 -20 -20 -20 -20 -20 -20 -20 -20 -20 -20 -20 -20 -20 -20 -20 -20 -20 -20
-20 -20 -20 -20 -20 -20 -20 -20 -20 -20 -20 -20 -20 -20 -20 -20 -20 -20 -20 -20 -20 -20 -20 -20 -20 -20 -20 -20 -20 -20 -20 -20 -20 -20 -20 -20 -20 -20 -20 -20 -20 -20 -20 -20 -20 -20 -20 -20 -20 -20 -20 -20 -20 -20
-20 -20 -20 -20 -20 -20 -20 -20 -20 -20 -20 -20 -20 -20 -20 -20 -20 -20 -20 -20 -20 -20 -20 -20 -20 -20 -20 -20 -20 -20 -20 -20 -20 -20 -20 -20 -20 -20 -20 -20 -20 -20 -20 -20 -20 -20 -20 -20 -20 -20 -20 -20 -20 -20

GFSWCAN_prec_radar_138.txt.gz
Reflectivity
33 33 35 35 29 27 26 25 7 -19 -20 -20 -20 -8 -17 -20 -12 -10 -11 -19 -19 -20 -20 -20 -20 -20 -20 -20 -20 -20 -20 -20 -20 -20 -20 -20 -20 -20 -20 -20 -20 -20 -20 -20 -20 -20 -20 -20 -20 -20 -20 -19 7 10
30 29 31 30 21 20 15 2 -18 -20 -20 -8 -1 1 -17 -20 -20 -20 -20 -20 -20 -20 -20 -20 -20 -20 -20 -20 -20 -20 -20 -20 -20 -20 -20 -20 -20 -20 -20 -20 -20 -20 -20 -20 -20 -20 -20 -20 -20 -20 2 -2 10 11
27 28 27 22 13 9 -20 -19 -20 -20 -20 -19 -15 -20 -20 -20 -20 -20 -20 -20 -20 -20 -20 -20 -20 -20 -20 -20 -20 -20 -20 -20 -20 -20 -20 -20 -20 -20 -20 -20 -20 -20 -20 -20 -20 -20 -20 -20 -20 -20 -20 -20 -8 -20
29 23 23 19 10 7 0 -6 -20 -20 -20 -20 -20 -20 -20 -20 -20 -20 -20 -20 -20 -20 -20 -20 -20 -20 -20 -20 -20 -20 -20 -20 -20 -20 -20 -20 -20 -20 -20 -20 -20 -20 -20 -20 -20 -20 -20 -20 -13 -20 -20 -20 -20 -20
25 20 19 14 6 -6 -10 -10 -20 -9 -20 -20 -20 -20 -20 -20 -20 -20 -20 -20 -20 -20 -20 -20 -20 -20 -20 -20 -20 -20 -20 -20 -20 -20 -20 -20 -20 -20 -20 -20 -20 -20 -20 -20 -20 -20 -20 -20 -20 -20 -20 -20 -20 -20
15 22 16 -0 -20 -2 -6 -20 -20 -14 -20 -20 -20 -20 -20 -20 -20 -20 -20 -20 -20 -20 -20 -20 -20 -20 -20 -20 -20 -20 -20 -20 -20 -20 -20 -20 -20 -20 -20 -20 -20 -20 -20 -20 -20 -20 -20 -20 -20 -20 -20 -20 -20 -20
8 13 8 -17 -19 -20 -20 -20 -20 -20 -20 -20 -20 -20 -20 -20 -20 -20 -20 -20 -20 -20 -20 -20 -20 -20 -20 -20 -20 -20 -20 -20 -20 -20 -20 -20 -20 -20 -20 -20 -20 -20 -20 -20 -20 -20 -20 -20 -20 -20 -20 -20 -20 -20
6 -14 -20 -7 -16 -11 -20 -20 -20 -20 -20 -20 -20 -20 -20 -20 -20 -20 -20 -20 -20 -20 -20 -20 -20 -20 -20 -20 -20 -20 -20 -20 -20 -20 -20 -20 -20 -20 -20 -20 -20 -20 -20 -20 -20 -20 -20 -20 -20 -20 -20 -20 -20 -20
-0 -20 -20 -20 -20 -17 -20 -20 -20 -20 -20 -20 -20 -20 -20 -20 -20 -20 -20 -20 -20 -20 -20 -20 -20 -20 -20 -20 -20 -20 -20 -20 -20 -20 -20 -20 -20 -20 -20 -20 -20 -20 -20 -20 -20 -20 -20 -20 -20 -20 -20 -20 -20 -20
-20 -20 -17 -19 15 3 -17 -20 -20 -20 -20 -20 -20 -20 -20 -20 -20 -20 -20 -20 -20 -20 -20 -20 -20 -20 -20 -20 -20 -20 -20 -20 -20 -20 -20 -20 -20 -20 -20 -20 -20 -20 -20 -20 -20 -20 -20 -20 -20 -20 -20 -20 -20 -20
-20 -20 -6 -2 3 17 -12 -20 -20 -20 -20 -20 -20 -18 -20 -20 -20 -20 -20 -20 -20 -20 -20 -20 -20 -20 -20 -20 -20 -20 -20 -20 -20 -20 -20 -20 -20 -20 -20 -20 -20 -20 -20 -20 -20 -20 -20 -20 -20 -20 -20 -20 -20 -20
-20 -20 -20 -2 10 -0 -20 -20 -20 -20 -20 -19 -16 -20 -20 -20 -20 -20 -20 -20 -20 -20 -20 -20 -20 -20 -20 -20 -20 -20 -20 -20 -13 -20 -20 -20 -20 -20 -20 -20 -20 -20 -20 -20 -20 -20 -20 -20 -20 -20 -20 -20 -20 -20
-17 -20 -20 25 19 -10 -20 -20 -20 -20 -20 3 -20 -20 -20 -20 -20 -20 -20 -20 -20 -20 -20 -20 -20 -20 -20 -20 -20 -20 -20 -20 -20 -18 -17 -20 -20 -20 -20 -20 -20 -20 -20 -20 -20 -20 -20 -20 -20 -20 -20 -20 -20 -20
-20 -20 -20 -20 6 -19 -20 -20 -20 -20 -20 -8 -19 -20 -20 -20 -20 -20 -20 -20 -20 -20 -20 -20 -20 -20 -20 -20 -20 -20 -20 -20 -20 -20 -20 -20 -20 -20 -20 -20 -20 -20 -20 -20 -20 -20 -20 -20 -20 -20 -20 -20 -20 -20
15 10 -18 -5 20 4 -16 -20 -20 -20 -20 -20 -20 -20 -20 -20 -20 -20 -20 -20 -20 -20 -20 -20 -20 -20 -20 -20 -20 -20 -20 -20 -20 -20 -20 -20 -20 -20 -20 -20 -20 -20 -20 -20 -20 -20 -20 -20 -20 -20 -20 -20 -20 -20
29 28 26 27 27 -1 -20 -20 -20 -20 -20 -20 -20 -20 -20 -20 -20 -20 -20 -20 -20 -20 -20 -20 -20 -20 -20 -20 -20 -20 -20 -20 -20 -20 -20 -20 -20 1 12 -4 -20 -20 -20 -20 -20 -20 -20 -20 -20 -20 -20 -20 -20 -20
35 31 31 24 -2 -20 -20 -20 -20 -20 -20 -20 -20 -20 -20 -20 -20 -20 -20 -20 -20 -20 -20 -20 -20 -20 -20 -20 -20 -20 -20 -20 -20 -20 -20 -20 -20 -20 -19 -20 -20 -20 -20 -20 -20 -20 -20 -20 -20 -20 -20 -20 -20 -20
5 29 26 1 -20 -20 -20 -20 -20 -20 -20 -20 -20 -20 -20 -20 -20 -20 -20 -20 -20 -20 -20 -20 -20 -20 -20 -20 -20 -20 -20 -20 -20 -20 -20 -20 -20 -20 -20 -20 -20 -20 -20 -20 -20 -20 -20 -20 -20 -20 -20 -20 -20 -20
36 36 25 -7 -20 -20 -15 -20 -20 -20 -20 -20 -20 -20 -20 -20 -20 -20 -20 -20 -20 -20 -20 -20 -20 -20 -20 -20 -20 -20 -20 -20 -20 -20 -20 -20 -20 -20 -20 -20 -20 -20 -20 -20 -20 -20 -20 -20 -20 -20 -20 -20 -20 -20
39 35 31 14 -6 -20 -20 -20 -20 -20 -20 -20 -20 -20 -20 -20 -20 -20 -20 -20 -20 -20 -20 -20 -20 -20 -20 -20 -20 -20 -20 -20 -20 -20 -20 -20 -20 -20 -20 -20 -20 -20 -20 -20 -20 -20 -20 -20 -20 -20 -20 -20 -20 -20
37 38 16 -15 -17 -20 -20 -20 -20 -20 -20 -20 -20 -20 -20 -20 -20 -20 -20 -20 -20 -20 -20 -20 -20 -20 -20 -20 -20 -20 -20 -20 -20 -20 -20 -20 -20 -20 -20 -20 -20 -20 -20 -20 -20 -20 -20 -20 -20 -20 -20 -20 -20 -20
31 40 32 1 -20 -20 -20 -20 -20 -20 -20 -20 -20 -20 -20 -20 -20 -20 -20 -20 -20 -20 -20 -20 -20 -20 -20 -20 -20 -20 -20 -20 -20 -20 -20 -20 -20 -20 -20 -20 -20 -20 -20 -20 -20 -20 -20 -20 -20 -20 -20 -20 -20 -20
16 23 18 9 8 -13 -20 -20 -20 -20 -20 -20 -20 -20 -20 -20 -20 -20 -20 -20 -20 -20 -20 -20 -20 -20 -20 -20 -20 -20 -20 -20 -20 -20 -20 -20 -20 -20 -20 -20 -20 -20 -20 -20 -20 -20 -20 -20 -20 -20 -20 -20 -20 -20
11 21 2 -20 -17 -20 -20 -20 -20 -20 -20 -20 -20 -20 -20 -20 -20 -20 -20 -20 -20 -20 -20 -20 -20 -20 -20 -20 -20 -20 -20 -20 -20 -20 -20 -20 -20 -20 -20 -20 -20 -20 -20 -20 -20 -20 -20 -20 -20 -20 -20 -20 -20 -20
12 17 2 -20 -20 -20 -20 -20 -20 -20 -20 -20 -20 -20 -20 -20 -20 -20 -20 -20 -20 -20 -20 -20 -20 -20 -20 -20 -20 -20 -20 -20 -20 -20 -20 -20 -20 -20 -20 -20 -20 -20 -20 -20 -20 -20 -20 -20 -20 -20 -20 -20 -20 -20
8 -1 -20 -20 -20 -20 -20 -20 -20 -20 -20 -20 -20 -20 -20 -20 -20 -20 -20 -20 -20 -20 -20 -20 -20 -20 -20 -20 -20 -20 -20 -20 -20 -20 -20 -20 -20 -20 -20 -20 -20 -20 -20 -20 -20 -20 -20 -20 -20 -20 -20 -20 -20 -20
-20 -20 -20 -20 -20 -20 -20 -20 -20 -20 -20 -20 -20 -20 -20 -20 -20 -20 -20 -20 -20 -20 -20 -20 -20 -20 -20 -20 -20 -20 -20 -20 -20 -20 -20 -20 -20 -20 -20 -20 -20 -20 -20 -20 -20 -20 -20 -20 -20 -20 -20 -20 -20 -20
-20 -20 -20 -20 -20 -20 -20 -20 -20 -20 -20 -20 -20 -20 -20 -20 -20 -20 -20 -20 -20 -20 -20 -20 -20 -20 -20 -20 -20 -20 -20 -20 -20 -20 -20 -20 -20 -20 -20 -20 -20 -20 -20 -20 -20 -20 -20 -20 -20 -20 -20 -20 -20 -20
-20 -20 -20 -20 -20 -20 -20 -20 -20 -20 -20 -20 -20 -20 -20 -20 -20 -20 -20 -20 -20 -20 -20 -20 -20 -20 -20 -20 -20 -20 -20 -20 -20 -20 -20 -20 -20 -20 -20 -20 -20 -20 -20 -20 -20 -20 -20 -20 -20 -20 -20 -20 -20 -20
-20 -20 -20 -20 -20 -20 -20 -20 -20 -20 -20 -20 -20 -20 -20 -20 -20 -20 -20 -20 -20 -20 -20 -20 -20 -20 -20 -20 -20 -20 -20 -20 -20 -20 -20 -20 -20 -20 -20 -20 -20 -20 -20 -20 -20 -20 -20 -20 -20 -20 -20 -20 -20 -20
-20 -20 -20 -20 -20 -20 -20 -20 -20 -20 -20 -20 -20 -20 -20 -20 -20 -20 -20 -20 -20 -20 -20 -20 -20 -20 -20 -20 -20 -20 -20 -20 -20 -20 -20 -20 -20 -20 -20 -20 -20 -20 -20 -20 -20 -20 -20 -20 -20 -20 -20 -20 -20 -20
-20 -20 -20 -20 -20 -20 -20 -20 -20 -20 -20 -20 -20 -20 -20 -20 -20 -20 -20 -20 -20 -20 -20 -20 -20 -20 -20 -20 -20 -20 -20 -20 -20 -20 -20 -20 -20 -20 -20 -20 -20 -20 -20 -20 -20 -20 -20 -20 -20 -20 -20 -20 -20 -20
-20 -20 -20 -20 -20 -20 -20 -20 -20 -20 -20 -20 -20 -20 -20 -20 -20 -20 -20 -20 -20 -20 -20 -20 -20 -20 -20 -20 -20 -20 -20 -20 -20 -20 -20 -20 -20 -20 -20 -20 -20 -20 -20 -20 -20 -20 -20 -20 -20 -20 -20 -20 -20 -20

GFSWCAN_prec_radar_141.txt.gz
Reflectivity
37 40 39 34 29 21 26 18 21 27 22 26 25 29 35 28 7 -14 -17 -4 -2 -20 -20 -17 -1 -7 -20 -20 -20 -20 -20 -20 -20 -20 -20 -20 -20 -20 -20 -20 -20 -20 -20 -20 -20 -20 -20 -20 -20 -20 -20 -20 7 18
34 38 40 39 29 30 23 23 27 28 33 30 17 12 19 16 1 6 9 -12 -20 -20 -20 -20 -20 -20 -20 -20 -20 -20 -20 -20 -20 -20 -20 -20 -20 -20 -20 -20 -20 -20 -20 -20 -20 -20 -20 -20 -20 -20 -8 0 3 -19
31 35 35 35 32 21 10 11 14 9 10 14 9 4 10 5 -8 -20 -20 -20 -20 -20 -20 -20 -20 -20 -20 -20 -20 -20 -20 -20 -20 -20 -20 -20 -20 -20 -20 -20 -20 -20 -20 -20 -20 -20 -20 -20 -20 -20 -20 -20 -13 -20
29 30 30 31 22 16 15 10 8 4 7 -6 -1 1 -1 -20 -18 -6 -20 -20 -20 -20 -20 -20 -20 -20 -20 -20 -20 -20 -20 -20 -20 -20 -20 -20 -20 -20 -20 -20 -20 -20 -20 -20 -20 -20 -20 -20 -12 -20 -16 -20 -20 -20
28 29 27 19 16 13 6 5 -16 -20 -20 -20 -20 -20 -20 -20 -20 -20 -20 -20 -20 -20 -20 -20 -20 -20 -20 -20 -20 -20 -20 -20 -20 -20 -20 -20 -20 -20 -20 -20 -20 -20 -20 -20 -20 -20 -20 -20 -20 -20 -20 -20 -20 -20
28 28 24 6 13 -3 -20 -20 -20 -20 -20 -20 -20 -20 -20 -20 -20 -20 -20 -20 -20 -20 -20 -20 -20 -20 -20 -20 -20 -20 -20 -20 -20 -20 -20 -20 -20 -20 -20 -20 -20 -20 -20 -20 -20 -20 -20 -20 -20 -20 -20 -20 -20 -20
26 26 19 -1 -1 -18 -14 -17 -20 -20 -20 -20 -20 -20 -20 -20 -20 -20 -20 -20 -20 -20 -20 -20 -20 -20 -20 -20 -20 -20 -20 -20 -20 -20 -20 -20 -20 -20 -20 -20 -20 -20 -20 -20 -20 -20 -20 -20 -20 -20 -20 -20 -20 -20
23 20 14 -11 -10 -3 -0 -20 -20 -20 -20 -20 -20 -20 -20 -20 -20 -20 -20 -20 -20 -20 -20 -20 -20 -20 -20 -20 -20 -20 -20 -20 -20 -20 -20 -20 -20 -20 -20 -20 -20 -20 -20 -20 -20 -20 -20 -20 -20 -20 -20 -20 -20 -20
20 15 -14 3 -11 -11 -13 -19 -20 -20 -20 -20 -20 -20 -20 -20 -20 -20 -20 -20 -20 -20 -20 -20 -20 -20 -20 -20 -10 -20 -20 -20 -20 -20 -20 -20 -20 -20 -20 -20 -20 -20 -20 -20 -20 -20 -20 -20 -20 -20 -20 -20 -20 -20
1 -13 -6 -6 -11 -20 -8 -10 -20 -20 -20 -20 -20 -20 -20 -20 -20 -20 -20 -20 -20 -20 -20 -20 -20 -20 -20 -20 -6 -19 -20 -20 -20 -20 -20 -20 -20 -20 -20 -20 -20 -20 -20 -20 -20 -20 -20 -20 -20 -20 -20 -20 -20 -20
9 -8 -16 2 -10 -20 -20 -20 -20 -20 -20 -20 -20 -4 -20 -20 -20 -20 -20 -20 -20 -20 -20 -20 -20 -20 -20 -20 -20 -20 -20 -20 -20 -20 -20 -20 -20 -20 -20 -20 -20 -20 -20 -20 -20 -20 -20 -20 -20 -20 -20 -20 -20 -20
-16 -20 -20 -12 -20 -18 -20 -20 -20 -20 -20 -20 -20 -20 -20 -20 -20 -20 -20 -20 -20 -20 -20 -20 -20 -20 -20 -20 -20 -20 -20 -20 -20 -20 -20 -20 -20 -20 -20 -20 -15 -8 -13 -20 -20 -20 -20 -20 -20 -20 -20 -20 -20 -20
-20 -20 10 -17 -19 -20 -20 -20 -20 -20 -20 -20 -20 -20 -20 -20 -20 -20 -20 -20 -20 -20 -20 -20 -20 -20 -20 -20 -20 -20 -20 -20 -20 -20 -18 -20 -20 -20 -20 -20 -20 -20 -20 -20 -20 -20 -20 -20 -20 -20 -20 -20 -20 -20
-20 2 -7 2 -20 -20 -20 -20 -20 -20 -20 -20 -20 -20 -20 -20 -20 -20 -20 -20 -20 -20 -20 -20 -20 -20 -20 -20 -20 -20 -20 -20 -20 -20 -20 -20 -20 -20 -20 -20 -20 -20 -20 -20 -20 -20 -20 -20 -20 -20 -20 -20 -20 -20
-19 22 -1 4 -20 -20 -20 -20 -20 -20 -20 -20 -20 -20 -20 -20 -20 -20 -20 -20 -20 -20 -20 -20 -20 -20 -20 -20 -20 -20 -20 -20 -20 -20 -20 -20 -20 -20 -20 -20 -20 -15 -3 -20 -20 -20 -20 -20 -20 -20 -20 -20 -20 -20
0 23 -2 -20 -20 -20 -20 -20 -20 -20 -20 -20 -20 -20 -20 -20 -20 -6 -20 -20 -20 -20 -20 -20 -20 -20 -20 -20 -20 -20 -20 -20 -20 -20 -20 -20 -20 -20 -20 -20 -10 -20 -20 -20 -20 -20 -20 -20 -20 -20 -20 -20 -20 -20
-16 -9 21 -20 -20 -20 -20 -20 -20 -20 -20 -20 -20 -20 -20 -20 -20 -20 -20 -20 -20 -20 -20 -20 -20 -20 -20 -20 -20 -20 -20 -20 -20 -20 -20 -20 -20 -20 -20 -20 -20 -20 -20 -20 -20 -20 -20 -20 -20 -20 -20 -20 -20 -20
-12 -5 10 4 -20 -20 -20 -20 -20 -20 -20 -20 -20 -20 -20 -20 -20 -20 -20 -20 -20 -20 -20 -20 -20 -20 -20 -20 -20 -20 -20 -20 -20 -20 -20 -20 -20 -20 -20 -20 -20 -20 -20 -20 -20 -20 -20 -20 -20 -20 -20 -20 -20 -20
-1 -14 -20 -20 -20 -20 -20 -20 -20 -20 -20 -20 -20 -20 -20 -20 -20 -20 -20 -20 -20 -20 -20 -20 -20 -20 -20 -20 -20 -20 -20 -20 -20 -20 -20 -20 -20 -20 -20 -20 -20 -20 -20 -20 -20 -20 -20 -20 -20 -20 -20 -20 -20 -20
11 4 -1 -20 -20 -20 -20 -20 -20 -20 -20 -20 -20 -20 -20 -20 -20 -20 -20 -20 -20 -20 -20 -20 -20 -20 -20 -20 -20 -20 -20 -20 -20 -20 -20 -20 -20 -20 -20 -20 -20 -20 -20 -20 -20 -20 -20 -20 -20 -20 -20 -20 -20 -20
32 26 -11 -20 -20 -20 -20 -20 -20 -20 -20 -20 -20 -20 -20 -20 -20 -20 -20 -20 -20 -20 -20 -20 -20 -20 -20 -20 -20 -20 -20 -20 -20 -20 -20 -20 -20 -20 -20 -20 -20 -20 -20 -20 -20 -20 -20 -20 -20 -20 -20 -20 -20 -20
34 28 19 -20 -20 -20 -20 -20 -20 -20 -20 -20 -20 -20 -20 -20 -20 -20 -20 -20 -20 -20 -20 -20 -20 -20 -20 -20 -20 -20 -20 -20 -20 -20 -20 -20 -20 -20 -20 -20 -20 -20 -20 -20 -20 -20 -20 -20 -20 -20 -20 -20 -20 -20
28 25 6 -20 -20 -20 -20 -20 -20 -20 -20 -20 -20 -20 -20 -20 -20 -20 -20 -20 -20 -20 -20 -20 -20 -20 -20 -20 -20 -20 -20 -20 -20 -20 -20 -20 -20 -20 -20 -20 -20 -20 -20 -20 -20 -20 -20 -20 -20 -20 -20 -20 -20 -20
28 20 10 -17 -20 -20 -20 -20 -20 -20 -20 -20 -20 -20 -20 -20 -20 -20 -20 -20 -20 -20 -20 -20 -20 -20 -20 -20 -20 -20 -20 -20 -20 -20 -20 -20 -20 -20 -20 -20 -20 -20 -20 -20 -20 -20 -20 -20 -20 -20 -20 -20 -20 -20
13 12 -4 -20 -20 -20 -20 -20 -20 -20 -20 -20 -20 -20 -20 -20 -20 -20 -20 -20 -20 -20 -20 -20 -20 -20 -20 -20 -20 -20 -20 -20 -20 -20 -20 -20 -20 -20 -20 -20 -20 -20 -20 -20 -20 -20 -20 -20 -20 -20 -20 -20 -20 -20
-8 -6 -20 -20 -20 -20 -20 -20 -20 -20 -20 -20 -20 -20 -20 -20 -20 -20 -20 -20 -20 -20 -20 -20 -20 -20 -20 -20 -20 -20 -20 -20 -20 -20 -20 -20 -20 -20 -20 -20 -20 -20 -20 -20 -20 -20 -20 -20 -20 -20 -20 -20 -20 -20
-20 -20 -20 -20 -20 -20 -20 -20 -20 -20 -20 -20 -20 -20 -20 -20 -20 -20 -20 -20 -20 -20 -20 -20 -20 -20 -20 -20 -20 -20 -20 -20 -20 -20 -20 -20 -20 -20 -20 -20 -20 -20 -20 -20 -20 -20 -20 -20 -20 -20 -20 -20 -20 -20
-20 -20 -20 -20 -20 -20 -20 -20 -20 -20 -20 -20 -20 -20 -20 -20 -20 -20 -13 -20 -20 -20 -20 -20 -20 -20 -20 -20 -20 -20 -20 -20 -20 -20 -20 -20 -20 -20 -20 -20 -20 -20 -20 -20 -20 -20 -20 -20 -20 -20 -20 -20 -20 -20
-20 -20 -20 -20 -20 -20 -20 -20 -20 -20 -20 -20 -20 -20 -20 -20 -20 -20 -20 -20 -20 -20 -20 -20 -20 -20 -20 -20 -20 -20 -20 -20 -20 -20 -20 -20 -20 -20 -20 -20 -20 -20 -20 -20 -20 -20 -20 -20 -20 -20 -20 -20 -20 -20
-20 -20 -20 -20 -20 -20 -20 -20 -20 -20 -20 -20 -20 -20 -20 -20 -20 -20 -20 -20 -20 -20 -20 -20 -20 -20 -20 -20 -20 -20 -20 -20 -20 -20 -20 -20 -20 -20 -20 -20 -20 -20 -20 -20 -20 -20 -20 -20 -20 -20 -20 -20 -20 -20
-20 -20 -20 -20 -20 -20 -20 -20 -20 -20 -20 -20 -20 -20 -20 -20 -20 -20 -20 -20 -20 -20 -20 -20 -20 -20 -20 -20 -20 -20 -20 -20 -20 -20 -20 -20 -20 -20 -20 -20 -20 -20 -20 -20 -20 -20 -20 -20 -20 -20 -20 -20 -20 -20
-20 -20 -20 -20 -20 -20 -20 -20 -20 -20 -20 -20 -20 -20 -20 -20 -20 -20 -20 -20 -20 -20 -20 -20 -20 -20 -20 -20 -20 -20 -20 -20 -20 -20 -20 -20 -20 -20 -20 -20 -20 -20 -20 -20 -20 -20 -20 -20 -20 -20 -20 -20 -20 -20
-20 -20 -20 -20 -20 -20 -20 -20 -20 -20 -20 -20 -20 -20 -20 -20 -20 -20 -20 -20 -20 -20 -20 -20 -20 -20 -20 -20 -20 -20 -20 -20 -20 -20 -20 -20 -20 -20 -20 -20 -20 -20 -20 -20 -20 -20 -20 -20 -20 -20 -20 -20 -20 -20

GFSWCAN_prec_radar_144.txt.gz
Reflectivity
31 33 36 8 11 11 14 11 13 7 14 18 22 25 27 27 29 30 15 -16 -20 -20 -7 4 -19 -20 -20 -20 -16 -3 -19 -20 -20 -20 -20 -20 -20 -20 -20 -20 -20 -20 -20 -20 -8 2 -16 -20 -20 -11 -8 -6 -0 -0
32 36 41 14 14 16 17 19 19 15 19 20 18 21 23 33 19 -13 -20 -20 -20 -20 -20 -20 -20 -6 -12 -3 -18 -20 -20 -20 -20 -20 -20 -20 -20 -20 -20 -20 -20 -20 -20 1 -20 5 -20 -20 -20 -20 -20 -7 -3 -1
33 40 41 33 23 18 15 16 20 22 24 26 22 26 34 19 17 6 3 -4 -20 -8 3 -1 -20 -19 -20 -20 -20 -20 -20 -20 -20 -20 -20 -20 -20 -20 -20 -20 -20 -20 -20 -20 -20 -20 -20 -20 -20 -14 -1 -7 -0 -20
34 37 40 37 33 27 21 28 20 18 22 32 31 30 18 -1 9 5 -18 -10 -1 -4 -20 -20 -20 -20 -20 -20 -20 -20 -20 -20 -20 -20 -20 -20 -20 -20 -20 -20 -20 -20 -20 -20 -20 -20 -20 -20 -4 -9 -13 -11 -20 -20
30 33 34 32 30 24 20 23 26 29 34 30 22 19 14 5 7 -3 -19 -20 -20 -20 -20 -20 -20 -20 -20 -20 -20 -20 -20 -20 -20 -20 -20 -20 -20 -20 -20 -20 -20 -20 -20 -20 -20 -18 -10 -7 -20 -8 -4 -20 -20 -20
21 30 30 28 24 16 13 18 24 26 23 28 16 18 4 -15 -18 -2 -19 -4 -20 -20 -20 -20 -20 -20 -20 -20 -20 -20 -20 -20 -20 -20 -20 -20 -20 -20 -20 -20 -20 -20 -20 -20 4 -20 -20 -20 -20 -20 -20 -20 -20 -20
17 22 26 24 20 18 2 -1 14 19 12 5 4 -4 -7 -1 -18 -19 -19 -20 -20 -20 -20 -20 -20 -20 -20 -20 -20 -20 -20 -20 -20 -20 -20 -20 -20 -20 -20 -20 -20 -20 -20 -20 -20 -20 -20 -20 -20 -20 -20 -20 -20 -20
11 14 25 19 7 12 -1 -6 -9 2 13 15 9 -12 -20 -20 -2 -6 -9 -10 -20 -20 -20 -10 5 -20 -20 -20 -20 -20 -20 -20 -20 -20 -20 -20 -20 -20 -20 -20 -20 -20 -20 -20 -20 -20 -20 -20 -20 -20 -20 -20 -20 -20
-1 -14 21 22 -11 -19 -20 -20 -20 -20 -20 -20 -20 -20 -20 -20 -20 -20 -20 -20 -20 -20 -20 -11 -16 -4 -20 -16 -20 -20 -20 -20 -20 -6 -20 -20 -20 -20 -20 -20 -20 -20 -20 -20 -20 -20 -20 -20 -20 -20 -20 -20 -20 -20
9 -19 13 5 -20 -20 -20 -20 -20 -20 -20 -20 -20 -20 -20 -20 -20 -20 -20 -20 -20 -20 -20 -11 -20 -6 -16 -19 -1 -2 -19 -2 -1 -2 -19 -8 -19 -20 -20 -20 -20 -20 -20 -20 -20 -20 -20 -20 -20 -20 -20 -20 -20 -20
1 -20 -20 -20 -12 -19 -20 -20 -20 -20 -20 -20 -20 -19 -20 -20 -20 -20 -20 -20 -20 -20 -20 -20 -20 -20 -20 -12 -15 -20 -6 -20 -20 -2 1 2 -2 -10 -20 -20 -20 -20 -20 -20 -20 -20 -20 -20 -20 -20 -20 -20 -20 -20
-18 -14 -20 -20 -20 -20 -20 -20 -20 -20 -20 -20 -20 -20 -20 -20 -20 -20 -20 -20 -20 -20 -20 -20 -20 -20 -20 -20 -20 -7 -6 -14 -20 -11 1 -13 -13 -20 -20 -20 -20 -20 -20 -5 5 -9 -20 -20 -20 -20 -20 -20 -20 -20
-3 -20 -20 -20 -20 -20 -20 -20 -20 -20 -20 -20 -20 -20 -20 -20 -20 -20 -20 -20 -20 -20 -20 -20 -20 -20 -20 -20 -20 -19 -20 -20 -4 -0 -19 -20 -20 -20 -20 -20 -20 -20 -20 -20 -20 -20 -20 -20 -20 -20 -20 -20 -20 -20
-6 -20 -20 -20 -20 -20 -20 -20 -20 -20 -20 -20 -20 -20 -20 -20 -20 -20 -20 -20 -20 -20 -20 -20 -20 -20 -20 -20 -20 -20 -20 -10 -2 -20 -20 -20 -20 -20 -20 -20 -20 -20 -20 -20 -20 -20 -20 -20 -20 -20 -20 -20 -20 -20
-1 -20 -20 -20 -20 -20 -20 -20 -20 -20 -20 -20 -20 -14 -14 -20 -5 -19 -20 -17 -20 -20 -20 -20 -20 -20 -20 -20 -20 -20 -16 -20 -20 -20 -20 -20 -20 -20 -20 -20 -20 -20 -20 -5 -20 -20 -20 -20 -20 -20 -20 -20 -20 -20
-8 -20 -18 -20 -20 -20 -20 -20 -20 -20 -20 -20 -20 -20 -20 8 -15 -19 1 -11 -20 -20 -20 -20 -20 -20 -20 -20 -20 -20 -20 -20 -20 -20 -20 -20 -20 -20 -20 -20 -20 -20 -20 -20 -20 -20 -20 -20 -20 -20 -20 -20 -20 -20
-20 3 -20 -20 -20 -20 -20 -20 -20 -20 -20 -20 5 -19 6 -12 2 -18 -4 -19 -20 -20 -20 -20 -20 -20 -20 -20 -20 -20 -20 -20 -20 -20 -20 -20 -20 -20 -20 -20 -20 -20 -20 -20 -20 -20 -20 -20 -20 -20 -20 -19 -20 -20
-14 -11 -20 -20 -20 -20 -20 -20 -20 -20 -20 -20 -20 -18 -20 -12 3 3 -7 -20 -20 -20 -20 -20 -20 -20 -20 -20 -20 -20 -20 -20 -20 -20 -20 -20 -20 -20 -20 -20 -20 -20 -20 -20 -20 -20 -20 -20 -20 -20 -20 -20 -17 -1
-20 -20 -20 -20 -20 -20 -20 -20 -20 -20 -10 -11 -20 -15 -13 -15 -10 -10 -10 -20 -20 -20 -20 -20 -20 -20 -20 -20 -20 -20 -20 -20 -20 -20 -12 -20 -20 -20 -20 -20 -20 -20 -20 -20 -12 -0 -5 -20 -20 -20 -20 -20 -11 -1
-15 -20 -20 -20 -20 -20 -20 -20 -20 -20 -7 -20 -20 -15 -3 -8 -20 -20 -20 -20 -20 -20 -20 -20 -20 -20 -20 -20 -20 -20 -20 -20 -20 -15 -1 -3 -20 -20 -20 -20 -7 -11 -20 -13 -3 -20 -20 -20 -9 -6 -2 -1 2 3
-20 -20 -20 -20 -20 -20 -20 -20 -20 -20 -20 -20 -20 -20 -20 -20 -20 -20 -20 -20 -20 -20 -20 -20 -20 -20 -20 -20 -20 -20 -20 -20 -20 -20 -20 -3 -1 -2 -20 -1 -20 -4 -20 -1 1 -20 -20 -20 -4 -3 4 5 4 4
-13 -20 -20 -20 -20 -20 -20 -20 -20 -20 -16 -20 -20 -20 -20 -20 -20 -20 -20 -20 -20 -20 -20 -20 -20 -20 -20 -20 -12 -6 -20 -20 -20 -20 -20 -20 -8 -20 -1 -2 -4 -1 -0 -5 -20 -20 -20 -20 -3 -4 2 4 2 4
-20 -20 -20 -20 -20 -20 -20 -20 -20 -20 -20 -20 -20 -20 -20 -20 -20 -20 -20 -20 -20 -20 -20 -20 -20 -20 -20 -20 -20 -20 -20 -20 -20 -20 -20 -20 -20 -5 -3 -0 -3 -11 -20 -20 -20 -20 0 -19 -20 -11 -13 -20 4 5
-6 -20 -20 -20 -20 -13 -20 -20 -20 -20 -20 -20 -20 -20 -20 -20 -20 -20 -20 -20 -20 -20 -20 -20 -20 -20 -20 -20 -20 -20 -20 -20 -20 -20 -20 -20 -20 -1 -20 -20 -20 -20 -20 -20 -19 1 1 4 -20 -4 -20 -20 -20 -0
14 11 -20 -20 -20 -20 -20 -20 -20 -20 -20 -20 -20 -20 -20 -20 -20 -20 -20 -20 -20 -20 -20 -19 -8 -20 -20 -4 -4 -20 -20 -20 -20 -20 -1 -20 -20 -20 -20 -20 -20 -20 -20 0 -2 -14 -3 -0 1 1 -20 1 -2 -19
1 1 -20 -20 -20 -20 -20 -20 -20 -20 -20 -20 -20 -20 -20 -20 -20 -20 -20 -20 -20 -20 -18 -10 -8 -2 -20 -20 -20 -20 -20 -20 -20 -20 -20 -20 -20 -20 -20 -20 -20 -20 -20 -20 -20 -20 -20 -20 -0 -8 -0 -13 -20 -3
-3 -20 -20 -20 -20 -20 -20 -20 -20 -20 -20 -20 -20 -20 -20 -20 -20 -20 -20 -20 -20 -20 -20 -20 -20 -20 -20 -20 -20 -20 -20 -20 -20 -20 -20 -20 -20 -20 -20 -20 -20 -20 -20 -20 -20 -20 -20 -11 1 0 -12 -2 -12 -20
-20 -20 -20 -8 -20 -20 -20 -20 -20 -20 -20 -20 -20 -20 -20 -20 -20 -20 -20 -20 -20 -20 -20 -20 -20 -20 -20 -20 -20 -20 -20 -20 -20 -20 -20 -20 -20 -20 -20 -20 -20 -20 -20 -20 -20 -20 -20 -20 -3 -6 -0 -1 -20 -20
-20 -20 -20 -20 -20 -20 -20 -20 -20 -20 -20 -20 -20 -20 -20 -20 -20 -20 -20 -20 -20 -20 -20 -20 -20 -20 -20 -20 -20 -20 -20 -20 -20 -20 -20 -20 -20 -20 -20 -20 -20 -20 -20 -20 -20 -20 -20 -20 -20 -20 -20 -4 -20 -20
-20 -20 -20 -20 -20 -20 -20 -20 -20 -20 -20 -20 -20 -20 -20 -20 -20 -20 -20 -20 -20 -20 -20 -20 -20 -20 -20 -20 -20 -20 -20 -20 -20 -20 -20 -20 -20 -20 -20 -20 -20 -20 -1 1 0 -2 -12 -20 -20 -20 -20 -20 -20 -20
-20 -20 -20 -20 -20 -20 -20 -20 -20 -20 -20 -20 -20 -20 -20 -20 -20 -20 -20 -20 -20 -20 -20 -20 -20 -20 -20 -20 -20 -20 -20 -20 -20 -20 -20 -20 -20 -20 -20 -20 -20 -20 -20 -20 -20 -18 -20 -20 -14 -20 -20 -20 -20 -20
-20 -20 -20 -20 -20 -20 -20 -20 -20 -20 -20 -20 -20 -20 -20 -20 -20 -20 -20 -20 -19 -20 -20 -20 -20 -20 -20 -20 -20 -20 -20 -20 -20 -20 -20 -20 -20 -20 -20 -20 -20 -20 -20 -20 -20 -20 -20 -20 -20 -20 -20 -20 -20 -20
-20 -20 -20 -20 -20 -20 -20 -20 -20 -20 -20 -20 -20 -20 -20 -20 -20 -20 -20 -20 -4 -1 -5 -20 -20 -20 -20 -20 -20 -20 -20 -20 -20 -20 -20 -20 -20 -20 -20 -20 -20 -20 -20 -20 -20 -20 -20 -20 -20 -20 -20 -20 -20 -20

GFSWCAN_prec_radar_147.txt.gz
Reflectivity
20 15 6 -14 -20 -20 -20 -10 9 10 12 6 7 3 17 -20 23 22 14 21 26 6 4 21 16 6 6 7 -12 -20 -20 -20 -20 -20 -20 -20 -20 -20 -16 -19 -14 -11 -6 4 3 18 10 -20 -20 -11 -10 -20 -20 -17
31 28 16 -17 -4 -20 -20 -8 13 17 13 15 11 10 -15 17 21 14 17 30 34 31 11 14 -9 12 10 16 9 -18 -20 -20 -20 -20 -20 -20 -20 -20 -20 4 -20 -2 -18 14 10 18 -20 -20 -20 -20 -20 -20 -20 -14
31 36 31 -19 -13 -2 15 -20 -19 -4 13 13 11 16 23 19 20 15 26 31 28 17 17 13 -3 9 -8 -20 -20 -20 -20 -20 -20 -20 -20 -20 -20 -20 -20 -20 -20 -20 -20 -14 -20 -20 -20 -20 -20 -20 -20 -20 -18 -20
34 38 34 22 20 14 15 7 11 17 19 24 24 18 14 25 21 30 32 29 18 -20 4 -14 -11 -20 -20 -20 -20 -20 -20 -20 -20 -20 -20 -20 -20 -20 -20 -20 -20 -20 -20 -20 -20 -20 -14 -13 -20 -20 -20 -20 -5 -20
37 40 34 24 26 26 23 24 14 18 16 13 8 20 24 30 28 25 3 -20 3 9 -11 -20 -20 -20 -19 -20 -20 -20 -20 -20 -20 -20 -20 -20 -20 -20 -20 -20 -20 -20 -20 -14 2 -20 -20 -17 -20 -20 -20 -20 -20 -20
34 36 39 29 22 17 17 19 21 22 16 21 20 18 25 23 16 -15 16 17 8 8 -7 -9 -14 -20 -20 -20 -20 -20 -20 -20 -20 -20 -20 -20 -20 -20 -20 -20 -20 -20 -20 -20 -19 0 5 -20 -10 -20 -20 -20 -20 -20
32 35 36 39 38 37 34 31 29 29 34 32 26 17 14 11 17 13 -20 -20 -17 -20 -10 -1 -15 -20 -19 -20 -20 -20 -20 -20 -20 -20 -20 -20 -20 -20 -20 -20 -20 -20 -20 -20 -20 -20 -20 -20 -20 -20 -20 -20 -20 -20
33 33 34 35 35 29 27 30 30 29 22 11 9 14 15 17 13 12 13 6 1 -20 -20 -8 -7 -20 -20 -20 -20 -20 -20 -20 -20 -20 -20 -20 -20 -20 -20 -20 -20 -20 -13 -6 -20 -20 -20 -20 -20 -20 -20 -20 -20 -20
29 25 33 31 31 33 32 30 28 24 16 5 -14 -13 2 6 -13 0 -6 -17 -10 -17 -20 -20 -20 1 -20 -17 -20 -20 -20 -20 -20 -9 -5 -20 -0 -16 -20 -20 -20 -20 3 -16 -20 -20 -20 -20 -20 -20 -20 -20 -20 -20
17 19 26 26 30 29 27 25 15 5 -1 8 11 9 8 -14 1 -20 -20 -20 -20 -20 -20 -20 -20 -20 -20 -20 -15 -18 -14 -1 -3 2 -20 -7 5 -20 -20 -20 -20 -20 -20 -20 -20 -20 -20 -20 -19 -20 -20 -20 -20 -20
11 5 2 1 8 12 14 12 2 -12 0 -2 -20 -20 -3 -15 -20 -20 -20 -20 -20 -20 -20 -20 -20 -20 -20 -20 -0 -0 -1 1 -0 -4 0 2 2 -20 -20 -20 -20 -20 -20 -20 -20 -20 -20 -20 -20 -20 -20 -20 -20 -20
15 -5 -17 -19 -1 -8 -18 -20 -17 -20 -17 -13 -14 -20 -20 -20 -20 -20 -20 -20 -20 -20 -20 -20 -20 -20 -9 -20 -13 -9 -7 -4 3 -6 -16 -4 -11 -20 -20 -20 -20 -20 -20 -20 -20 -13 9 10 -3 -20 -20 -20 -20 -20
6 -20 -18 -7 -6 -7 -5 -13 -2 7 8 0 -10 -20 -20 -20 -13 -20 -20 -20 -20 -20 -20 -20 -12 -20 -20 -18 -15 -2 -1 1 -18 -1 -18 5 -20 -20 -20 -20 -20 -20 -20 -20 -20 -20 -20 -20 -12 -20 -20 -20 -20 -20
-20 -20 -20 -20 -20 -20 -20 -6 -20 -17 -20 -20 7 -20 -20 -20 -20 -20 -20 -20 -20 -20 -20 -20 -20 -20 -20 -20 -20 -18 -5 -5 -0 -2 -11 -13 -20 -20 -20 -20 -20 -20 -20 -20 -20 -20 -20 -20 -20 -20 -20 -20 -20 -4
-20 -20 -20 -20 -20 -20 -20 -20 -20 -20 -20 -20 -20 -15 -0 -12 -6 -20 -15 -18 -20 -20 -20 -20 -20 -20 -20 -20 -20 -20 -1 -8 -11 -19 2 -15 -20 -20 -20 -20 -20 -20 -20 -20 -20 -20 -20 -20 -20 -20 -20 -13 -20 -20
-20 -20 -20 -20 -20 -20 -20 -20 -20 -20 -20 -18 5 4 10 -14 -12 -10 -20 -5 -9 -20 -20 -20 -20 -20 -20 -20 -20 -20 -20 -20 -20 9 -1 -20 -20 -20 -20 -20 -20 -20 -20 -20 -20 -20 -20 -20 -20 -14 -20 -20 -20 -20
-20 -20 -20 -20 -20 -20 -20 -20 -20 -20 -3 3 12 0 -1 -13 9 11 2 -8 -20 5 -20 -20 -20 -20 -20 -20 -20 -20 -20 3 1 -3 -20 -20 -20 -20 -20 -20 -20 -20 -20 -20 -20 -20 -13 -20 -20 -14 0 -18 1 -3
-20 -20 -20 -20 -20 -20 -20 -20 -20 -20 1 -5 5 8 -10 4 3 2 1 -20 -3 -20 -20 -20 -20 -20 -20 -20 -17 -20 -6 -12 -20 -20 -6 -20 -20 -19 -20 -14 -20 -20 -20 -20 -20 -20 -20 -20 -18 -4 -10 -19 -20 -15
-20 -20 -20 -20 -20 -20 -20 -20 -20 -6 8 5 6 2 -0 -1 -0 -3 -13 -16 -15 -20 -20 -20 -0 -20 2 5 2 0 -4 -20 -7 -11 -17 -20 -20 -20 -20 -20 -20 -18 -20 -8 -3 -1 -1 -10 -12 -8 -5 -2 -1 1
-20 -20 -20 -20 -20 -20 -20 -20 -20 -16 3 -1 4 -7 -3 -1 -8 -2 -20 -20 -20 -20 -20 -12 5 -12 -10 -18 -15 -17 -20 -20 -20 -14 -3 -20 -15 -20 -15 -16 -3 -8 -2 -0 -2 -15 -6 -9 -4 -3 -4 -2 5 8
-20 -20 -20 -20 -20 -20 -20 -20 -3 -20 -20 -2 -12 -20 -7 -20 -12 -20 -20 -20 -15 -20 -20 -2 -20 -20 -20 -20 -20 -20 -20 -20 -20 -20 -20 -5 1 1 -7 7 -20 -16 -20 -8 -4 -2 -10 -2 -5 -1 6 9 4 4
-20 -20 -20 -20 -20 -20 -16 -20 -14 -20 2 -20 -20 -20 0 -1 -3 -9 -20 -14 -20 -4 -17 -12 -7 -20 -20 -20 -20 -20 -20 -20 -20 -9 -3 -20 -3 2 1 -3 -1 -1 -5 3 -2 -2 -2 -3 -1 1 6 6 -6 5
-20 -20 -20 -20 -20 -20 -20 -20 -20 -20 -20 -20 -20 -20 -20 -20 -20 -20 -20 -20 -14 -20 -20 -20 -20 -20 -20 -20 -10 -12 -20 -20 -20 -12 -20 -0 2 1 -2 -1 -3 -3 -0 -4 -1 -1 -2 -12 -20 3 -1 0 7 8
-20 -20 -20 -20 -20 -12 -20 -20 -20 -20 -20 -20 -20 -20 -20 -20 -20 -20 -20 -20 -20 -20 -20 -20 -20 -20 -13 -20 -18 -17 -20 -20 -20 -5 0 -16 -3 0 -4 -0 -16 -6 -4 -17 -2 -3 -3 5 -14 -2 2 3 2 3
-20 -20 -20 -20 -20 -20 -20 -20 -20 -20 -20 -20 -20 -20 -20 -20 -20 -20 -20 -20 -20 -20 -20 -20 -20 -20 -16 -20 -20 -8 -20 -3 -1 -19 -1 -1 -6 -1 -10 -20 -19 -8 -2 -2 2 3 3 6 3 6 3 4 3 0
-20 -20 -20 -20 -20 -20 -20 -20 -20 -20 -20 -20 -20 -20 -20 -20 -20 -20 -20 -20 -20 -20 -9 -15 -4 -6 -14 -10 -20 -16 -6 -20 -20 -13 -1 -6 -10 -2 -3 -2 -0 0 -14 2 3 3 2 2 4 2 2 -12 -14 -7
-20 -20 -20 -20 -20 -20 -20 -20 -20 -20 -20 -20 -20 -20 -20 -20 -20 -20 -20 -20 -20 -20 -20 -20 -20 -13 -18 -20 -20 -20 -20 -15 -14 -14 -20 -20 -20 -14 -2 -2 -1 -9 -20 -13 -1 -0 -0 -4 -0 1 3 2 1 -4
-20 -20 -20 -6 -20 -20 -20 -20 -20 -20 -20 -20 -20 -20 -20 -20 -20 -20 -20 -20 -20 -20 -20 -20 -20 -20 -20 -20 -19 -18 -6 -15 -20 -20 -20 -12 -6 -20 -20 -20 -20 -20 -13 -20 -6 -18 -18 -5 -3 0 2 1 -2 -12
-1 -19 -10 -20 -20 -20 -20 -20 -20 -20 -20 -20 -20 -20 -20 -20 -20 -20 -20 -20 -20 -20 -20 -4 -4 -11 -6 -18 -20 -10 -1 -2 -20 -18 -20 -18 1 1 2 -3 -20 -14 -13 -20 -20 -20 -20 -9 -3 -1 -2 0 -2 -5
-8 -16 -10 -20 -20 -20 -3 -11 -6 -8 -20 -20 -20 -20 -20 -20 -13 -20 -20 -20 -20 -3 -7 -7 -3 -1 -2 -1 -3 -6 -15 -15 -2 -1 -2 -1 -1 -20 -3 0 1 -0 -0 -1 -0 -3 -18 -14 -20 -18 -7 -5 -3 -11
-17 -20 -20 -20 -20 -5 -4 -4 -5 -12 -20 -17 -20 -17 -10 -17 -7 -20 -20 -4 -4 -14 -12 -8 -4 -2 -1 -2 -2 -2 -3 -9 -20 -20 -20 -12 -20 -10 0 -14 -2 -4 -0 -1 -2 -5 -5 -6 -2 -5 -20 -20 -20 -20
-1 -14 -20 -20 -20 -9 -20 -5 -5 -6 -5 -4 -6 -4 -3 -2 -3 -18 -2 -2 -2 -2 -4 -12 -4 -1 -14 -1 -1 -1 -20 -20 -20 -20 -20 -20 -20 -20 -20 -20 -20 -20 -4 -4 -5 -19 -20 -20 -19 -19 -20 -20 -20 -20
-2 -11 -20 -20 -20 -20 -20 -11 -20 -20 -20 -20 -20 -19 -19 -20 -20 -20 -5 -3 -3 -19 -1 3 -15 5 -14 -15 -4 -5 -17 -20 -20 -20 -20 -20 -20 -20 -20 -20 -20 -20 -20 -20 -20 -20 -20 -20 -20 -20 -20 -20 -20 -20